EW3105 Weather Reports


time (UTC)temp
C
wind
direction
speed
KPH
gust
KPH
rain 1hr
cm
rain 24hr
cm
rain mn
cm
humidity
%
barometer
mb
20260507021011 16 15 8.0 19.3 0.00 0.00 0.00 80 1012.6
20260507020858 16 11 9.7 19.3 0.00 0.00 0.00 80 1012.5
20260507020822 16 21 9.7 19.3 0.00 0.00 0.00 79 1012.5
20260507020705 16 11 11.3 19.3 0.00 0.00 0.00 79 1012.5
20260507020607 16 34 9.7 19.3 0.00 0.00 0.00 79 1012.6
20260507020511 16 12 11.3 19.3 0.00 0.00 0.00 79 1012.6
20260507020413 16 360 9.7 19.3 0.00 0.00 0.00 79 1012.7
20260507020300 16 32 6.4 17.7 0.00 0.00 0.00 79 1012.8
20260507020204 16 31 4.8 17.7 0.00 0.00 0.00 79 1012.8
20260507020107 16 29 4.8 17.7 0.00 0.00 0.00 79 1012.8
20260507020010 16 5 6.4 17.7 0.00 0.00 0.00 79 1012.8
20260507015934 16 20 8.0 17.7 0.00 0.00 0.00 79 1012.7
20260507015757 16 346 8.0 17.7 0.00 0.00 0.00 79 1012.6
20260507015703 16 360 6.4 17.7 0.00 0.00 0.00 79 1012.6
20260507015607 16 30 6.4 17.7 0.00 0.00 0.00 79 1012.6
20260507015510 16 63 6.4 17.7 0.00 0.00 0.00 79 1012.5
20260507015413 16 24 6.4 17.7 0.00 0.00 0.00 79 1012.6
20260507015257 16 355 4.8 17.7 0.00 0.00 0.00 79 1012.5
20260507015159 16 5 8.0 17.7 0.00 0.00 0.00 79 1012.6
20260507015124 16 355 9.7 17.7 0.00 0.00 0.00 79 1012.5
20260507015009 16 5 9.7 17.7 0.00 0.00 0.00 79 1012.5
20260507014912 16 5 6.4 16.1 0.00 0.00 0.00 79 1012.5
20260507014816 16 26 8.0 16.1 0.00 0.00 0.00 79 1012.4
20260507014719 16 360 8.0 16.1 0.00 0.00 0.00 79 1012.5
20260507014601 16 340 4.8 16.1 0.00 0.00 0.00 79 1012.5
20260507014504 16 11 4.8 16.1 0.00 0.00 0.00 79 1012.5
20260507014412 16 21 6.4 16.1 0.00 0.00 0.00 79 1012.5
20260507014315 16 5 4.8 16.1 0.00 0.00 0.00 79 1012.5
20260507014157 16 360 4.8 16.1 0.00 0.00 0.00 79 1012.5
20260507014101 16 5 6.4 16.1 0.00 0.00 0.00 79 1012.4
20260507014003 16 360 9.7 16.1 0.00 0.00 0.00 79 1012.5
20260507013907 16 19 8.0 16.1 0.00 0.00 0.00 79 1012.4
20260507013810 16 5 3.2 16.1 0.00 0.00 0.00 79 1012.4
20260507013658 16 360 6.4 16.1 0.00 0.00 0.00 79 1012.3
20260507013600 16 341 9.7 17.7 0.00 0.00 0.00 79 1012.3
20260507013504 16 10 9.7 17.7 0.00 0.00 0.00 79 1012.2
20260507013407 16 346 6.4 17.7 0.00 0.00 0.00 79 1012.2
20260507013311 16 5 6.4 17.7 0.00 0.00 0.00 79 1012.2
20260507013214 16 24 8.0 17.7 0.00 0.00 0.00 79 1012.1
20260507013102 16 5 6.4 17.7 0.00 0.00 0.00 79 1012.0
20260507013006 16 31 6.4 17.7 0.00 0.00 0.00 79 1012.0
20260507012910 16 16 9.7 17.7 0.00 0.00 0.00 79 1012.0
20260507012812 16 21 9.7 17.7 0.00 0.00 0.00 79 1012.0
20260507012714 16 15 8.0 14.5 0.00 0.00 0.00 79 1012.1
20260507012558 16 26 6.4 14.5 0.00 0.00 0.00 79 1012.1
20260507012505 16 22 8.0 14.5 0.00 0.00 0.00 79 1012.3
20260507012409 16 11 8.0 14.5 0.00 0.00 0.00 78 1012.3
20260507012313 16 22 8.0 14.5 0.00 0.00 0.00 78 1012.3
20260507012215 16 14 9.7 14.5 0.00 0.00 0.00 78 1012.2
20260507012059 16 5 6.4 14.5 0.00 0.00 0.00 78 1012.2
20260507012002 16 20 6.4 14.5 0.00 0.00 0.00 78 1012.1
20260507011910 16 344 6.4 14.5 0.00 0.00 0.00 78 1012.0
20260507011814 16 48 6.4 14.5 0.00 0.00 0.00 78 1011.9
20260507011716 16 34 6.4 14.5 0.00 0.00 0.00 78 1012.0
20260507011621 16 355 6.4 16.1 0.00 0.00 0.00 78 1012.0
20260507011457 16 13 6.4 16.1 0.00 0.00 0.00 78 1012.0
20260507011401 16 5 8.0 16.1 0.00 0.00 0.00 78 1012.0
20260507011307 16 15 8.0 16.1 0.00 0.00 0.00 78 1012.0
20260507011211 16 17 6.4 16.1 0.00 0.00 0.00 78 1012.1
20260507011114 16 355 8.0 16.1 0.00 0.00 0.00 78 1012.1
20260507010958 16 13 6.4 16.1 0.00 0.00 0.00 78 1012.1
20260507010804 16 5 6.4 19.3 0.00 0.00 0.00 78 1012.1
20260507010714 16 355 3.2 20.9 0.00 0.00 0.00 78 1012.1
20260507010616 16 355 4.8 20.9 0.00 0.00 0.00 78 1012.1
20260507010519 16 22 4.8 20.9 0.00 0.00 0.00 78 1012.1
20260507010403 16 30 4.8 20.9 0.00 0.00 0.00 78 1012.1
20260507010305 16 5 8.0 20.9 0.00 0.00 0.00 78 1012.0
20260507010209 16 326 8.0 27.4 0.00 0.00 0.00 78 1011.8
20260507010112 16 338 9.7 27.4 0.00 0.00 0.00 78 1011.5
20260507010020 16 17 11.3 27.4 0.00 0.00 0.00 78 1011.3
20260507005901 16 26 11.3 27.4 0.00 0.00 0.00 78 1011.4
20260507005805 16 5 9.7 27.4 0.00 0.00 0.00 78 1011.5
20260507005709 16 5 8.0 27.4 0.00 0.00 0.00 78 1011.7
20260507005612 16 344 11.3 27.4 0.00 0.00 0.00 78 1011.7
20260507005516 16 339 14.5 27.4 0.00 0.00 0.00 78 1011.9
20260507005402 16 331 14.5 27.4 0.00 0.00 0.00 78 1012.0
20260507005306 16 343 9.7 22.5 0.00 0.00 0.00 78 1011.9
20260507005210 16 355 9.7 20.9 0.00 0.00 0.00 78 1012.0
20260507005114 16 13 9.7 20.9 0.00 0.00 0.00 78 1011.9
20260507005037 16 32 12.9 20.9 0.00 0.00 0.00 78 1011.7
20260507004920 16 22 14.5 20.9 0.00 0.00 0.00 78 1011.6
20260507004821 16 19 12.9 20.9 0.00 0.00 0.00 78 1011.7
20260507004704 16 36 9.7 19.3 0.00 0.00 0.00 78 1011.8
20260507004612 16 26 8.0 16.1 0.00 0.00 0.00 78 1011.7
20260507004536 16 30 8.0 16.1 0.00 0.00 0.00 78 1011.7
20260507004418 16 5 8.0 17.7 0.00 0.00 0.00 78 1011.7
20260507004300 16 348 6.4 17.7 0.00 0.00 0.00 78 1011.7
20260507004204 16 16 6.4 17.7 0.00 0.00 0.00 78 1011.7
20260507004107 16 16 8.0 17.7 0.00 0.00 0.00 78 1011.8
20260507004011 16 12 6.4 17.7 0.00 0.00 0.00 78 1011.8
20260507003919 16 19 4.8 17.7 0.00 0.00 0.00 78 1011.8
20260507003823 16 24 6.4 17.7 0.00 0.00 0.00 78 1011.8
20260507003706 16 355 8.0 17.7 0.00 0.00 0.00 78 1011.7
20260507003609 16 12 8.0 17.7 0.00 0.00 0.00 78 1011.6
20260507003514 16 360 8.0 20.9 0.00 0.00 0.00 78 1011.6
20260507003358 16 29 9.7 20.9 0.00 0.00 0.00 77 1011.4
20260507003306 16 22 9.7 20.9 0.00 0.00 0.00 78 1011.2
20260507003209 16 34 8.0 20.9 0.00 0.00 0.00 78 1011.1
20260507003113 16 17 9.7 20.9 0.00 0.00 0.00 77 1011.2
20260507003036 16 47 9.7 20.9 0.00 0.00 0.00 77 1011.3
20260507002858 16 45 9.7 20.9 0.00 0.00 0.00 77 1011.3
20260507002802 16 355 12.9 20.9 0.00 0.00 0.00 77 1011.5
20260507002705 16 327 12.9 20.9 0.00 0.00 0.00 77 1011.5
20260507002633 16 5 11.3 20.9 0.00 0.00 0.00 77 1011.6
20260507002515 16 351 12.9 20.9 0.00 0.00 0.00 77 1011.6
20260507002419 16 5 12.9 20.9 0.00 0.00 0.00 77 1011.4
20260507002301 16 349 9.7 19.3 0.00 0.00 0.00 77 1011.5
20260507002203 16 23 11.3 19.3 0.00 0.00 0.00 77 1011.4
20260507002107 16 5 11.3 19.3 0.00 0.00 0.00 77 1011.4
20260507002011 16 10 11.3 20.9 0.00 0.00 0.00 77 1011.4
20260507001859 16 336 9.7 20.9 0.00 0.00 0.00 77 1011.3
20260507001803 17 23 9.7 20.9 0.00 0.00 0.00 77 1011.2
20260507001705 17 22 8.0 20.9 0.00 0.00 0.00 77 1011.3
20260507001629 16 17 9.7 20.9 0.00 0.00 0.00 77 1011.4
20260507001511 16 15 9.7 20.9 0.00 0.00 0.00 77 1011.4
20260507001415 16 5 9.7 20.9 0.00 0.00 0.00 77 1011.6
20260507001302 16 15 9.7 20.9 0.00 0.00 0.00 77 1011.6
20260507001205 16 360 11.3 20.9 0.00 0.00 0.00 77 1011.6
20260507001110 16 24 11.3 25.7 0.00 0.00 0.00 77 1011.6
20260507001013 16 345 11.3 25.7 0.00 0.00 0.00 77 1011.4
20260507000856 16 28 9.7 25.7 0.00 0.00 0.00 77 1011.4
20260507000800 16 355 9.7 25.7 0.00 0.00 0.00 77 1011.4
20260507000708 16 319 11.3 25.7 0.00 0.00 0.00 77 1011.4
20260507000630 16 38 11.3 25.7 0.00 0.00 0.00 77 1011.4
20260507000512 16 10 12.9 25.7 0.00 0.00 0.00 77 1011.3
20260507000358 16 5 16.1 25.7 0.00 0.00 0.00 77 1011.3
20260507000301 17 41 12.9 25.7 0.00 0.00 0.00 77 1011.1
20260507000205 17 345 8.0 24.1 0.00 0.00 0.00 77 1011.1
20260507000112 17 48 8.0 24.1 0.00 0.00 0.00 77 1011.1
20260507000015 17 5 6.4 24.1 0.00 0.00 0.00 77 1011.1
20260506235859 17 43 8.0 24.1 0.00 0.00 0.00 76 1011.2
20260506235821 17 355 8.0 24.1 0.00 0.00 0.00 76 1011.3
20260506235704 17 13 9.7 24.1 0.00 0.00 0.00 77 1011.3
20260506235607 17 34 9.7 24.1 0.00 0.00 0.00 76 1011.3
20260506235511 17 333 4.8 22.5 0.00 0.00 0.00 77 1011.3
20260506235359 16 331 4.8 22.5 0.00 0.00 0.00 77 1011.2
20260506235322 16 355 6.4 22.5 0.00 0.00 0.00 77 1011.2
20260506235159 16 355 9.7 24.1 0.00 0.00 0.00 77 1011.1
20260506235102 16 351 11.3 24.1 0.00 0.00 0.00 77 1011.1
20260506235007 16 17 12.9 24.1 0.00 0.00 0.00 77 1011.0
20260506234911 16 334 12.9 24.1 0.00 0.00 0.00 77 1011.1
20260506234758 16 5 11.3 24.1 0.00 0.00 0.00 76 1011.2
20260506234702 16 19 12.9 24.1 0.00 0.00 0.00 76 1011.2
20260506234605 17 355 12.9 24.1 0.00 0.00 0.00 76 1011.1
20260506234509 17 17 12.9 24.1 0.00 0.00 0.00 76 1011.0
20260506234412 17 52 11.3 22.5 0.00 0.00 0.00 76 1011.1
20260506234316 17 50 11.3 22.5 0.00 0.00 0.00 76 1011.1
20260506234244 17 355 11.3 22.5 0.00 0.00 0.00 76 1011.0
20260506234058 17 15 9.7 19.3 0.00 0.00 0.00 76 1011.1
20260506234002 17 351 9.7 19.3 0.00 0.00 0.00 76 1011.1
20260506233906 17 19 9.7 20.9 0.00 0.00 0.00 76 1011.2
20260506233810 17 21 8.0 20.9 0.00 0.00 0.00 76 1011.3
20260506233715 16 26 8.0 20.9 0.00 0.00 0.00 76 1011.3
20260506233621 17 29 8.0 20.9 0.00 0.00 0.00 77 1011.2
20260506233457 16 11 4.8 20.9 0.00 0.00 0.00 77 1011.3
20260506233401 16 5 8.0 20.9 0.00 0.00 0.00 77 1011.3
20260506233304 16 34 11.3 20.9 0.00 0.00 0.00 76 1011.2
20260506233207 16 27 12.9 20.9 0.00 0.00 0.00 76 1011.1
20260506233111 16 331 11.3 20.9 0.00 0.00 0.00 76 1011.0
20260506233000 16 340 11.3 24.1 0.00 0.00 0.00 77 1011.0
20260506232902 16 342 11.3 24.1 0.00 0.00 0.00 76 1011.0
20260506232806 16 11 11.3 24.1 0.00 0.00 0.00 76 1010.9
20260506232710 16 40 11.3 24.1 0.00 0.00 0.00 76 1010.8
20260506232612 17 32 11.3 24.1 0.00 0.00 0.00 76 1010.9
20260506232515 16 19 9.7 24.1 0.00 0.00 0.00 76 1010.8
20260506232402 16 26 11.3 24.1 0.00 0.00 0.00 76 1010.8
20260506232306 16 21 14.5 24.1 0.00 0.00 0.00 76 1010.9
20260506232210 17 40 14.5 24.1 0.00 0.00 0.00 76 1011.0
20260506232112 17 348 14.5 24.1 0.00 0.00 0.00 76 1010.9
20260506232015 17 11 14.5 24.1 0.00 0.00 0.00 76 1010.9
20260506231858 17 5 9.7 24.1 0.00 0.00 0.00 76 1010.9
20260506231801 17 338 6.4 27.4 0.00 0.00 0.00 76 1010.9
20260506231709 17 15 8.0 27.4 0.00 0.00 0.00 76 1010.8
20260506231632 16 19 8.0 27.4 0.00 0.00 0.00 76 1010.9
20260506231515 16 360 12.9 27.4 0.00 0.00 0.00 76 1010.8
20260506231358 16 5 14.5 27.4 0.00 0.00 0.00 76 1010.9
20260506231323 16 355 11.3 27.4 0.00 0.00 0.00 76 1010.9
20260506231159 16 334 11.3 27.4 0.00 0.00 0.00 77 1010.9
20260506231101 16 19 16.1 27.4 0.00 0.00 0.00 76 1010.9
20260506231008 16 15 16.1 27.4 0.00 0.00 0.00 76 1010.9
20260506230911 16 15 14.5 27.4 0.00 0.00 0.00 76 1010.9
20260506230816 17 355 14.5 25.7 0.00 0.00 0.00 76 1011.0
20260506230722 17 9 14.5 25.7 0.00 0.00 0.00 76 1010.9
20260506230556 17 5 9.7 24.1 0.00 0.00 0.00 76 1011.0
20260506230500 17 360 12.9 27.4 0.00 0.00 0.00 76 1011.0
20260506230407 17 30 12.9 27.4 0.00 0.00 0.00 76 1011.0
20260506230310 17 5 11.3 27.4 0.00 0.00 0.00 76 1011.0
20260506230211 17 34 8.0 27.4 0.00 0.00 0.00 77 1011.1
20260506230114 16 9 8.0 27.4 0.00 0.00 0.00 77 1011.1
20260506225958 16 323 11.3 27.4 0.00 0.00 0.00 76 1011.1
20260506225902 16 12 12.9 27.4 0.00 0.00 0.00 76 1011.1
20260506225805 16 11 14.5 27.4 0.00 0.00 0.00 76 1011.1
20260506225713 16 32 12.9 27.4 0.00 0.00 0.00 76 1011.1
20260506225636 16 9 16.1 27.4 0.00 0.00 0.00 75 1011.1
20260506225458 17 22 16.1 27.4 0.00 0.00 0.00 75 1011.1
20260506225402 17 5 14.5 27.4 0.00 0.00 0.00 75 1011.1
20260506225305 17 23 14.5 27.4 0.00 0.00 0.00 75 1011.1
20260506225209 17 5 16.1 27.4 0.00 0.00 0.00 75 1011.0
20260506225111 17 9 17.7 27.4 0.00 0.00 0.00 75 1011.1
20260506224959 17 5 17.7 25.7 0.00 0.00 0.00 74 1011.2
20260506224902 17 19 16.1 24.1 0.00 0.00 0.00 74 1011.0
20260506224805 17 16 12.9 25.7 0.00 0.00 0.00 75 1011.1
20260506224729 17 25 11.3 25.7 0.00 0.00 0.00 75 1011.0
20260506224610 17 24 8.0 25.7 0.00 0.00 0.00 75 1011.0
20260506224514 17 30 8.0 25.7 0.00 0.00 0.00 75 1010.9
20260506224437 17 34 8.0 25.7 0.00 0.00 0.00 75 1011.0
20260506224344 17 355 9.7 25.7 0.00 0.00 0.00 75 1010.9
20260506224158 17 340 12.9 25.7 0.00 0.00 0.00 75 1010.9
20260506224102 17 31 14.5 25.7 0.00 0.00 0.00 75 1010.9
20260506224006 17 35 12.9 25.7 0.00 0.00 0.00 75 1010.9
20260506223908 17 15 11.3 25.7 0.00 0.00 0.00 75 1010.9
20260506223811 17 23 14.5 25.7 0.00 0.00 0.00 75 1010.7
20260506223700 17 17 17.7 25.7 0.00 0.00 0.00 75 1010.7
20260506223622 17 17 16.1 25.7 0.00 0.00 0.00 74 1010.7
20260506223459 17 11 16.1 25.7 0.00 0.00 0.00 74 1010.8
20260506223403 17 27 16.1 25.7 0.00 0.00 0.00 75 1010.8
20260506223305 17 5 14.5 27.4 0.00 0.00 0.00 75 1010.9
20260506223209 17 5 14.5 27.4 0.00 0.00 0.00 74 1010.7
20260506223057 17 340 14.5 30.6 0.00 0.00 0.00 74 1010.7
20260506223000 17 26 16.1 30.6 0.00 0.00 0.00 74 1010.7
20260506222924 17 24 14.5 30.6 0.00 0.00 0.00 74 1010.8
20260506222806 17 5 12.9 30.6 0.00 0.00 0.00 74 1010.7
20260506222730 17 36 12.9 30.6 0.00 0.00 0.00 74 1010.7
20260506222612 17 10 16.1 30.6 0.00 0.00 0.00 74 1010.7
20260506222515 17 16 17.7 30.6 0.00 0.00 0.00 74 1010.7
20260506222423 17 5 19.3 30.6 0.00 0.00 0.00 73 1010.6
20260506222259 18 10 14.5 30.6 0.00 0.00 0.00 73 1010.6
20260506222203 18 26 9.7 24.1 0.00 0.00 0.00 74 1010.5
20260506222126 17 18 11.3 25.7 0.00 0.00 0.00 74 1010.6
20260506222008 17 12 12.9 25.7 0.00 0.00 0.00 74 1010.6
20260506221911 17 26 12.9 25.7 0.00 0.00 0.00 74 1010.5
20260506221758 17 17 11.3 25.7 0.00 0.00 0.00 74 1010.5
20260506221702 17 360 11.3 25.7 0.00 0.00 0.00 73 1010.5
20260506221626 17 9 12.9 25.7 0.00 0.00 0.00 74 1010.5
20260506221509 17 37 12.9 25.7 0.00 0.00 0.00 73 1010.6
20260506221413 17 9 14.5 25.7 0.00 0.00 0.00 73 1010.6
20260506221336 18 355 14.5 25.7 0.00 0.00 0.00 73 1010.6
20260506221219 18 355 14.5 24.1 0.00 0.00 0.00 72 1010.7
20260506221121 18 5 12.9 22.5 0.00 0.00 0.00 72 1010.7
20260506221007 18 37 12.9 22.5 0.00 0.00 0.00 72 1010.8
20260506220911 18 350 9.7 25.7 0.00 0.00 0.00 72 1010.7
20260506220815 18 344 11.3 25.7 0.00 0.00 0.00 72 1010.8
20260506220658 18 23 12.9 25.7 0.00 0.00 0.00 72 1010.7
20260506220620 18 23 11.3 25.7 0.00 0.00 0.00 72 1010.8
20260506220456 18 9 11.3 25.7 0.00 0.00 0.00 72 1010.8
20260506220401 18 328 14.5 25.7 0.00 0.00 0.00 72 1010.7
20260506220327 18 350 16.1 25.7 0.00 0.00 0.00 72 1010.7
20260506220210 18 346 14.5 25.7 0.00 0.00 0.00 72 1010.7
20260506220113 18 340 11.3 25.7 0.00 0.00 0.00 72 1010.7
20260506220037 18 342 11.3 25.7 0.00 0.00 0.00 72 1010.6
20260506215900 18 340 14.5 25.7 0.00 0.00 0.00 72 1010.6
20260506215823 18 347 12.9 25.7 0.00 0.00 0.00 72 1010.7
20260506215706 18 15 14.5 25.7 0.00 0.00 0.00 72 1010.8
20260506215613 18 338 16.1 25.7 0.00 0.00 0.00 71 1010.7
20260506215456 18 350 14.5 25.7 0.00 0.00 0.00 71 1010.7
20260506215420 18 355 11.3 25.7 0.00 0.00 0.00 71 1010.9
20260506215305 18 20 11.3 32.2 0.00 0.00 0.00 71 1010.9
20260506215206 18 306 11.3 32.2 0.00 0.00 0.00 72 1010.8
20260506215110 18 338 11.3 32.2 0.00 0.00 0.00 72 1010.6
20260506214956 18 342 14.5 32.2 0.00 0.00 0.00 72 1010.7
20260506214920 18 5 14.5 32.2 0.00 0.00 0.00 72 1010.7
20260506214802 18 355 11.3 32.2 0.00 0.00 0.00 72 1010.7
20260506214726 18 13 9.7 32.2 0.00 0.00 0.00 72 1010.7
20260506214608 18 348 12.9 32.2 0.00 0.00 0.00 73 1010.7
20260506214511 18 360 14.5 32.2 0.00 0.00 0.00 72 1010.8
20260506214415 18 5 12.9 29.0 0.00 0.00 0.00 72 1010.7
20260506214259 18 311 16.1 29.0 0.00 0.00 0.00 71 1010.6
20260506214202 18 348 16.1 29.0 0.00 0.00 0.00 70 1010.7
20260506214126 18 5 14.5 29.0 0.00 0.00 0.00 70 1010.8
20260506214028 19 340 14.5 29.0 0.00 0.00 0.00 70 1010.7
20260506213911 19 21 14.5 29.0 0.00 0.00 0.00 70 1010.7
20260506213814 19 5 14.5 29.0 0.00 0.00 0.00 70 1010.8
20260506213659 19 346 11.3 25.7 0.00 0.00 0.00 70 1010.8
20260506213620 19 349 12.9 25.7 0.00 0.00 0.00 70 1010.6
20260506213507 19 350 11.3 29.0 0.00 0.00 0.00 71 1010.7
20260506213430 19 323 11.3 29.0 0.00 0.00 0.00 72 1010.7
20260506213313 19 355 12.9 29.0 0.00 0.00 0.00 71 1010.7
20260506213216 19 22 14.5 29.0 0.00 0.00 0.00 70 1010.7
20260506213059 19 329 14.5 29.0 0.00 0.00 0.00 70 1010.7
20260506213002 19 313 16.1 29.0 0.00 0.00 0.00 70 1010.6
20260506212905 19 346 16.1 29.0 0.00 0.00 0.00 69 1010.7
20260506212833 20 348 17.7 29.0 0.00 0.00 0.00 69 1010.6
20260506212714 20 355 19.3 29.0 0.00 0.00 0.00 69 1010.6
20260506212618 20 49 14.5 27.4 0.00 0.00 0.00 69 1010.5
20260506212459 20 327 12.9 24.1 0.00 0.00 0.00 69 1010.6
20260506212403 20 11 14.5 27.4 0.00 0.00 0.00 69 1010.5
20260506212326 20 355 14.5 27.4 0.00 0.00 0.00 69 1010.6
20260506212209 20 27 16.1 27.4 0.00 0.00 0.00 69 1010.5
20260506212056 20 21 14.5 27.4 0.00 0.00 0.00 69 1010.5
20260506211956 20 355 14.5 27.4 0.00 0.00 0.00 69 1010.5
20260506211900 20 27 12.9 27.4 0.00 0.00 0.00 70 1010.6
20260506211803 20 10 11.3 29.0 0.00 0.00 0.00 70 1010.6
20260506211706 20 12 14.5 29.0 0.00 0.00 0.00 69 1010.6
20260506211610 20 27 19.3 29.0 0.00 0.00 0.00 69 1010.6
20260506211458 20 5 19.3 29.0 0.00 0.00 0.00 69 1010.5
20260506211402 20 5 17.7 29.0 0.00 0.00 0.00 69 1010.5
20260506211317 20 360 17.7 29.0 0.00 0.00 0.00 69 1010.6
20260506211211 20 14 19.3 29.0 0.00 0.00 0.00 68 1010.5
20260506211114 20 26 19.3 29.0 0.00 0.00 0.00 68 1010.5
20260506210958 21 34 19.3 29.0 0.00 0.00 0.00 68 1010.5
20260506210924 21 5 12.9 27.4 0.00 0.00 0.00 68 1010.5
20260506210819 21 26 11.3 27.4 0.00 0.00 0.00 68 1010.6
20260506210704 21 23 11.3 30.6 0.00 0.00 0.00 68 1010.5
20260506210630 21 337 12.9 30.6 0.00 0.00 0.00 68 1010.5
20260506210520 21 316 12.9 30.6 0.00 0.00 0.00 68 1010.5
20260506210405 21 348 12.9 30.6 0.00 0.00 0.00 68 1010.5
20260506210310 21 18 11.3 30.6 0.00 0.00 0.00 69 1010.4
20260506210204 21 331 11.3 33.8 0.00 0.00 0.00 69 1010.4
20260506210108 21 345 16.1 33.8 0.00 0.00 0.00 70 1010.4
20260506210040 21 5 20.9 33.8 0.00 0.00 0.00 68 1010.5
20260506205902 21 332 19.3 33.8 0.00 0.00 0.00 68 1010.6
20260506205807 21 327 17.7 33.8 0.00 0.00 0.00 68 1010.6
20260506205712 21 11 17.7 33.8 0.00 0.00 0.00 68 1010.6
20260506205623 21 317 17.7 33.8 0.00 0.00 0.00 68 1010.6
20260506205512 21 355 17.7 33.8 0.00 0.00 0.00 68 1010.6
20260506205356 21 331 17.7 33.8 0.00 0.00 0.00 68 1010.6
20260506205307 21 345 14.5 33.8 0.00 0.00 0.00 69 1010.6
20260506205232 21 319 12.9 25.7 0.00 0.00 0.00 68 1010.6
20260506205055 21 36 12.9 25.7 0.00 0.00 0.00 69 1010.6
20260506205007 21 330 12.9 25.7 0.00 0.00 0.00 69 1010.7
20260506204854 21 5 16.1 27.4 0.00 0.00 0.00 68 1010.6
20260506204759 21 13 17.7 27.4 0.00 0.00 0.00 69 1010.6
20260506204705 21 355 17.7 27.4 0.00 0.00 0.00 68 1010.5
20260506204609 22 355 12.9 29.0 0.00 0.00 0.00 68 1010.5
20260506204520 22 346 11.3 29.0 0.00 0.00 0.00 68 1010.4
20260506204404 22 24 12.9 29.0 0.00 0.00 0.00 68 1010.5
20260506204315 22 51 12.9 29.0 0.00 0.00 0.00 68 1010.5
20260506204202 22 350 16.1 33.8 0.00 0.00 0.00 68 1010.6
20260506204108 22 5 17.7 33.8 0.00 0.00 0.00 68 1010.6
20260506204019 22 360 14.5 33.8 0.00 0.00 0.00 68 1010.7
20260506203903 22 328 14.5 33.8 0.00 0.00 0.00 69 1010.7
20260506203836 22 22 14.5 33.8 0.00 0.00 0.00 70 1010.7
20260506203701 21 42 14.5 33.8 0.00 0.00 0.00 69 1010.7
20260506203609 21 321 16.1 33.8 0.00 0.00 0.00 69 1010.8
20260506203514 21 302 17.7 33.8 0.00 0.00 0.00 69 1010.9
20260506203359 21 348 16.1 33.8 0.00 0.00 0.00 69 1010.9
20260506203310 22 314 14.5 33.8 0.00 0.00 0.00 69 1010.9
20260506203154 22 14 17.7 32.2 0.00 0.00 0.00 68 1011.0
20260506203121 22 348 17.7 32.2 0.00 0.00 0.00 68 1011.0
20260506203015 22 341 14.5 27.4 0.00 0.00 0.00 68 1011.0
20260506202900 22 5 8.0 22.5 0.00 0.00 0.00 68 1010.9
20260506202804 22 355 9.7 24.1 0.00 0.00 0.00 68 1010.9
20260506202709 22 277 12.9 25.7 0.00 0.00 0.00 68 1010.9
20260506202554 22 327 12.9 30.6 0.00 0.00 0.00 69 1011.0
20260506202458 22 315 9.7 30.6 0.00 0.00 0.00 69 1010.9
20260506202354 22 355 8.0 30.6 0.00 0.00 0.00 69 1011.0
20260506202258 22 5 8.0 30.6 0.00 0.00 0.00 69 1010.9
20260506202202 22 349 9.7 30.6 0.00 0.00 0.00 69 1011.0
20260506202107 22 10 14.5 30.6 0.00 0.00 0.00 68 1011.0
20260506202018 22 32 16.1 30.6 0.00 0.00 0.00 68 1010.9
20260506201908 22 331 16.1 30.6 0.00 0.00 0.00 68 1010.9
20260506201813 22 336 14.5 30.6 0.00 0.00 0.00 68 1011.0
20260506201657 22 304 14.5 25.7 0.00 0.00 0.00 68 1010.9
20260506201602 22 13 16.1 27.4 0.00 0.00 0.00 68 1010.9
20260506201513 22 5 16.1 27.4 0.00 0.00 0.00 68 1010.9
20260506201419 22 32 16.1 27.4 0.00 0.00 0.00 68 1010.9
20260506201307 22 5 14.5 27.4 0.00 0.00 0.00 68 1010.9
20260506201218 22 15 14.5 27.4 0.00 0.00 0.00 68 1010.9
20260506201123 22 348 11.3 27.4 0.00 0.00 0.00 68 1010.9
20260506201013 22 333 9.7 29.0 0.00 0.00 0.00 69 1010.9
20260506200858 22 5 16.1 29.0 0.00 0.00 0.00 69 1010.9
20260506200803 22 38 17.7 29.0 0.00 0.00 0.00 68 1010.9
20260506200710 22 360 14.5 29.0 0.00 0.00 0.00 69 1010.9
20260506200557 22 355 12.9 29.0 0.00 0.00 0.00 69 1010.9
20260506200509 22 355 14.5 29.0 0.00 0.00 0.00 69 1010.7
20260506200413 22 336 14.5 29.0 0.00 0.00 0.00 69 1010.7
20260506200258 22 329 17.7 29.0 0.00 0.00 0.00 68 1010.7
20260506200223 22 321 19.3 30.6 0.00 0.00 0.00 67 1010.7
20260506200058 23 308 19.3 30.6 0.00 0.00 0.00 67 1010.6
20260506200001 23 336 14.5 30.6 0.00 0.00 0.00 68 1010.6
20260506195906 22 355 12.9 30.6 0.00 0.00 0.00 69 1010.7
20260506195817 22 333 11.3 30.6 0.00 0.00 0.00 70 1010.6
20260506195702 22 293 12.9 30.6 0.00 0.00 0.00 70 1010.6
20260506195607 22 309 12.9 30.6 0.00 0.00 0.00 70 1010.7
20260506195456 22 323 17.7 32.2 0.00 0.00 0.00 70 1010.6
20260506195402 22 338 20.9 32.2 0.00 0.00 0.00 70 1010.6
20260506195313 22 311 17.7 32.2 0.00 0.00 0.00 70 1010.6
20260506195219 22 360 12.9 32.2 0.00 0.00 0.00 71 1010.5
20260506195102 22 342 14.5 32.2 0.00 0.00 0.00 71 1010.5
20260506195012 22 350 14.5 32.2 0.00 0.00 0.00 71 1010.5
20260506194900 22 360 17.7 32.2 0.00 0.00 0.00 71 1010.4
20260506194806 22 337 16.1 32.2 0.00 0.00 0.00 71 1010.5
20260506194711 22 325 16.1 32.2 0.00 0.00 0.00 71 1010.4
20260506194624 22 307 14.5 30.6 0.00 0.00 0.00 71 1010.4
20260506194507 22 306 14.5 30.6 0.00 0.00 0.00 71 1010.4
20260506194412 22 336 16.1 30.6 0.00 0.00 0.00 71 1010.4
20260506194344 22 11 17.7 30.6 0.00 0.00 0.00 71 1010.2
20260506193458 23 17 12.9 30.6 0.00 0.00 0.00 70 1010.3
20260506193401 23 330 12.9 30.6 0.00 0.00 0.00 69 1010.3
20260506193306 23 21 14.5 30.6 0.00 0.00 0.00 70 1010.3
20260506193152 23 348 14.5 29.0 0.00 0.00 0.00 70 1010.2
20260506193056 23 345 14.5 29.0 0.00 0.00 0.00 70 1010.2
20260506192959 23 355 16.1 29.0 0.00 0.00 0.00 70 1010.1
20260506192903 23 326 14.5 29.0 0.00 0.00 0.00 71 1010.2
20260506192826 23 327 12.9 29.0 0.00 0.00 0.00 71 1010.2
20260506192709 23 341 16.1 29.0 0.00 0.00 0.00 71 1010.2
20260506192551 23 24 17.7 29.0 0.00 0.00 0.00 71 1010.2
20260506192459 24 9 17.7 29.0 0.00 0.00 0.00 70 1010.2
20260506192402 24 333 17.7 29.0 0.00 0.00 0.00 70 1010.2
20260506192306 25 35 19.3 29.0 0.00 0.00 0.00 68 1010.2
20260506192150 25 5 14.5 29.0 0.00 0.00 0.00 68 1010.2
20260506192053 25 332 12.9 24.1 0.00 0.00 0.00 68 1010.2
20260506191957 25 36 9.7 24.1 0.00 0.00 0.00 67 1010.1
20260506191925 25 11 8.0 24.1 0.00 0.00 0.00 68 1010.1
20260506191827 25 46 11.3 24.1 0.00 0.00 0.00 67 1010.1
20260506191650 25 42 11.3 24.1 0.00 0.00 0.00 67 1010.1
20260506191553 25 19 8.0 24.1 0.00 0.00 0.00 67 1010.1
20260506191456 25 11 11.3 24.1 0.00 0.00 0.00 67 1010.2
20260506191401 25 350 11.3 24.1 0.00 0.00 0.00 67 1010.2
20260506191303 25 342 9.7 19.3 0.00 0.00 0.00 68 1010.2
20260506191151 25 26 6.4 17.7 0.00 0.00 0.00 68 1010.2
20260506191054 25 20 4.8 17.7 0.00 0.00 0.00 69 1010.2
20260506190957 25 26 6.4 17.7 0.00 0.00 0.00 68 1010.2
20260506190900 25 19 8.0 17.7 0.00 0.00 0.00 69 1010.2
20260506190804 25 19 8.0 17.7 0.00 0.00 0.00 69 1010.3
20260506190707 25 24 8.0 17.7 0.00 0.00 0.00 69 1010.2
20260506190554 25 35 9.7 17.7 0.00 0.00 0.00 69 1010.2
20260506190517 25 14 9.7 16.1 0.00 0.00 0.00 69 1010.3
20260506190419 25 40 8.0 16.1 0.00 0.00 0.00 69 1010.2
20260506190302 25 39 8.0 12.9 0.00 0.00 0.00 69 1010.3
20260506190206 25 21 6.4 11.3 0.00 0.00 0.00 69 1010.3
20260506190049 25 46 4.8 14.5 0.00 0.00 0.00 69 1010.4
20260506185953 25 38 8.0 16.1 0.00 0.00 0.00 68 1010.4
20260506185901 26 38 8.0 19.3 0.00 0.00 0.00 68 1010.5
20260506185825 26 5 6.4 19.3 0.00 0.00 0.00 68 1010.4
20260506185649 26 40 4.8 19.3 0.00 0.00 0.00 68 1010.5
20260506185553 26 22 6.4 19.3 0.00 0.00 0.00 68 1010.5
20260506185456 26 24 6.4 19.3 0.00 0.00 0.00 68 1010.5
20260506185359 26 31 6.4 19.3 0.00 0.00 0.00 68 1010.4
20260506185306 26 29 9.7 19.3 0.00 0.00 0.00 67 1010.4
20260506185150 26 44 11.3 19.3 0.00 0.00 0.00 66 1010.4
20260506185054 26 34 8.0 19.3 0.00 0.00 0.00 66 1010.4
20260506184957 26 30 4.8 14.5 0.00 0.00 0.00 67 1010.4
20260506184901 26 19 6.4 14.5 0.00 0.00 0.00 67 1010.4
20260506184825 26 5 8.0 14.5 0.00 0.00 0.00 68 1010.4
20260506184708 26 18 3.2 14.5 0.00 0.00 0.00 70 1010.3
20260506184555 25 51 1.6 16.1 0.00 0.00 0.00 71 1010.4
20260506184459 25 51 3.2 16.1 0.00 0.00 0.00 70 1010.4
20260506184403 25 51 6.4 16.1 0.00 0.00 0.00 70 1010.4
20260506184327 25 47 6.4 16.1 0.00 0.00 0.00 71 1010.4
20260506184150 25 47 8.0 16.1 0.00 0.00 0.00 72 1010.3
20260506184053 24 71 6.4 16.1 0.00 0.00 0.00 73 1010.3
20260506184001 24 38 4.8 16.1 0.00 0.00 0.00 72 1010.3
20260506183904 24 96 6.4 16.1 0.00 0.00 0.00 71 1010.3
20260506183809 25 97 8.0 16.1 0.00 0.00 0.00 70 1010.3
20260506183651 25 90 11.3 16.1 0.00 0.00 0.00 70 1010.4
20260506183614 25 87 9.7 16.1 0.00 0.00 0.00 70 1010.4
20260506183451 25 89 8.0 16.1 0.00 0.00 0.00 69 1010.3
20260506183358 25 102 6.4 16.1 0.00 0.00 0.00 68 1010.3
20260506183303 26 112 3.2 16.1 0.00 0.00 0.00 67 1010.3
20260506183206 26 49 3.2 16.1 0.00 0.00 0.00 68 1010.2
20260506183050 25 44 6.4 16.1 0.00 0.00 0.00 68 1010.2
20260506182952 25 26 9.7 16.1 0.00 0.00 0.00 68 1010.2
20260506182916 26 24 8.0 16.1 0.00 0.00 0.00 67 1010.2
20260506182757 26 44 4.8 14.5 0.00 0.00 0.00 68 1010.1
20260506182700 26 30 6.4 12.9 0.00 0.00 0.00 67 1010.2
20260506182548 26 29 8.0 12.9 0.00 0.00 0.00 68 1010.2
20260506182511 26 29 4.8 12.9 0.00 0.00 0.00 68 1010.2
20260506182414 25 50 1.6 11.3 0.00 0.00 0.00 68 1010.2
20260506182251 25 55 3.2 11.3 0.00 0.00 0.00 68 1010.2
20260506182155 25 57 4.8 11.3 0.00 0.00 0.00 68 1010.2
20260506182058 25 20 4.8 11.3 0.00 0.00 0.00 68 1010.3
20260506182021 25 51 3.2 11.3 0.00 0.00 0.00 67 1010.2
20260506181907 25 81 4.8 11.3 0.00 0.00 0.00 67 1010.3
20260506181812 26 49 3.2 11.3 0.00 0.00 0.00 67 1010.4
20260506181653 26 90 3.2 9.7 0.00 0.00 0.00 66 1010.4
20260506181556 26 34 3.2 9.7 0.00 0.00 0.00 67 1010.4
20260506181459 26 5 4.8 9.7 0.00 0.00 0.00 68 1010.3
20260506181402 26 42 4.8 12.9 0.00 0.00 0.00 68 1010.4
20260506181305 26 25 4.8 12.9 0.00 0.00 0.00 67 1010.3
20260506181213 25 12 3.2 12.9 0.00 0.00 0.00 70 1010.3
20260506181056 25 75 0.0 12.9 0.00 0.00 0.00 72 1010.3
20260506180959 23 75 1.6 12.9 0.00 0.00 0.00 72 1010.3
20260506180903 23 75 3.2 12.9 0.00 0.00 0.00 72 1010.3
20260506180808 23 72 6.4 12.9 0.00 0.00 0.00 72 1010.3
20260506180651 23 52 6.4 12.9 0.00 0.00 0.00 71 1010.3
20260506180559 23 96 4.8 12.9 0.00 0.00 0.00 71 1010.3
20260506180502 23 109 3.2 9.7 0.00 0.00 0.00 70 1010.2
20260506180405 24 103 3.2 14.5 0.00 0.00 0.00 70 1010.3
20260506180308 24 53 3.2 16.1 0.00 0.00 0.00 72 1010.2
20260506180212 23 53 4.8 16.1 0.00 0.00 0.00 73 1010.3
20260506180049 23 57 4.8 16.1 0.00 0.00 0.00 73 1010.3
20260506175953 23 47 3.2 16.1 0.00 0.00 0.00 75 1010.3
20260506175919 23 84 1.6 16.1 0.00 0.00 0.00 75 1010.4
20260506175823 22 85 3.2 16.1 0.00 0.00 0.00 75 1010.4
20260506175704 22 85 8.0 16.1 0.00 0.00 0.00 74 1010.3
20260506175548 22 83 11.3 16.1 0.00 0.00 0.00 74 1010.3
20260506175452 22 58 8.0 16.1 0.00 0.00 0.00 74 1010.3
20260506175354 22 92 4.8 14.5 0.00 0.00 0.00 75 1010.3
20260506175259 22 81 3.2 14.5 0.00 0.00 0.00 75 1010.2
20260506175206 22 101 4.8 14.5 0.00 0.00 0.00 75 1010.3
20260506175110 22 102 8.0 16.1 0.00 0.00 0.00 74 1010.2
20260506174953 22 80 6.4 17.7 0.00 0.00 0.00 74 1010.2
20260506174856 22 101 3.2 17.7 0.00 0.00 0.00 75 1010.3
20260506174759 22 101 3.2 17.7 0.00 0.00 0.00 76 1010.3
20260506174703 22 96 4.8 17.7 0.00 0.00 0.00 76 1010.3
20260506174612 22 102 6.4 17.7 0.00 0.00 0.00 76 1010.3
20260506174448 22 59 9.7 17.7 0.00 0.00 0.00 75 1010.3
20260506174412 22 38 9.7 17.7 0.00 0.00 0.00 75 1010.3
20260506174248 22 74 9.7 17.7 0.00 0.00 0.00 76 1010.4
20260506174212 22 102 9.7 17.7 0.00 0.00 0.00 75 1010.4
20260506174054 22 69 8.0 16.1 0.00 0.00 0.00 75 1010.4
20260506173958 22 87 6.4 16.1 0.00 0.00 0.00 74 1010.4
20260506173905 22 84 6.4 16.1 0.00 0.00 0.00 74 1010.4
20260506173829 22 94 3.2 12.9 0.00 0.00 0.00 75 1010.4
20260506173654 22 347 4.8 12.9 0.00 0.00 0.00 75 1010.4
20260506173557 22 92 4.8 12.9 0.00 0.00 0.00 74 1010.4
20260506173500 22 84 4.8 12.9 0.00 0.00 0.00 75 1010.4
20260506173404 22 33 6.4 12.9 0.00 0.00 0.00 74 1010.4
20260506173311 22 38 8.0 16.1 0.00 0.00 0.00 76 1010.4
20260506173153 22 36 8.0 16.1 0.00 0.00 0.00 77 1010.4
20260506173058 21 15 6.4 16.1 0.00 0.00 0.00 77 1010.4
20260506173002 21 51 4.8 16.1 0.00 0.00 0.00 78 1010.3
20260506172905 21 111 4.8 16.1 0.00 0.00 0.00 76 1010.4
20260506172829 21 118 6.4 16.1 0.00 0.00 0.00 77 1010.4
20260506172652 21 82 8.0 17.7 0.00 0.00 0.00 77 1010.4
20260506172559 21 42 11.3 17.7 0.00 0.00 0.00 77 1010.4
20260506172502 21 69 9.7 17.7 0.00 0.00 0.00 77 1010.4
20260506172405 21 49 8.0 17.7 0.00 0.00 0.00 77 1010.4
20260506172249 21 92 9.7 17.7 0.00 0.00 0.00 77 1010.5
20260506172153 21 37 9.7 17.7 0.00 0.00 0.00 77 1010.5
20260506172056 21 81 9.7 17.7 0.00 0.00 0.00 76 1010.5
20260506172004 21 93 9.7 17.7 0.00 0.00 0.00 75 1010.6
20260506171849 21 101 8.0 17.7 0.00 0.00 0.00 75 1010.5
20260506171751 22 67 4.8 17.7 0.00 0.00 0.00 75 1010.5
20260506171655 21 44 6.4 17.7 0.00 0.00 0.00 75 1010.5
20260506171559 21 40 9.7 17.7 0.00 0.00 0.00 74 1010.6
20260506171503 21 42 9.7 17.7 0.00 0.00 0.00 74 1010.5
20260506171350 22 117 6.4 17.7 0.00 0.00 0.00 73 1010.4
20260506171254 22 17 6.4 17.7 0.00 0.00 0.00 73 1010.4
20260506171158 22 28 6.4 17.7 0.00 0.00 0.00 74 1010.5
20260506171102 21 351 6.4 17.7 0.00 0.00 0.00 75 1010.4
20260506171007 21 9 9.7 17.7 0.00 0.00 0.00 76 1010.5
20260506170849 21 15 9.7 17.7 0.00 0.00 0.00 77 1010.5
20260506170757 21 65 8.0 17.7 0.00 0.00 0.00 76 1010.5
20260506170702 21 32 8.0 17.7 0.00 0.00 0.00 77 1010.4
20260506170604 21 24 8.0 17.7 0.00 0.00 0.00 77 1010.4
20260506170508 20 78 9.7 20.9 0.00 0.00 0.00 78 1010.4
20260506170412 20 26 11.3 20.9 0.00 0.00 0.00 78 1010.4
20260506170248 20 35 8.0 20.9 0.00 0.00 0.00 78 1010.4
20260506170156 20 46 8.0 20.9 0.00 0.00 0.00 77 1010.4
20260506170059 20 46 11.3 22.5 0.00 0.00 0.00 77 1010.5
20260506170003 20 19 11.3 22.5 0.00 0.00 0.00 76 1010.6
20260506165906 20 30 11.3 22.5 0.00 0.00 0.00 76 1010.7
20260506165750 20 65 11.3 22.5 0.00 0.00 0.00 76 1010.7
20260506165653 20 18 11.3 22.5 0.00 0.00 0.00 76 1010.7
20260506165601 21 49 11.3 22.5 0.00 0.00 0.00 76 1010.7
20260506165504 21 36 9.7 29.0 0.00 0.00 0.00 77 1010.7
20260506165408 21 15 8.0 29.0 0.00 0.00 0.00 77 1010.6
20260506165251 20 28 11.3 29.0 0.00 0.00 0.00 78 1010.7
20260506165154 20 36 11.3 29.0 0.00 0.00 0.00 77 1010.7
20260506165058 20 34 11.3 29.0 0.00 0.00 0.00 78 1010.6
20260506165006 20 71 11.3 29.0 0.00 0.00 0.00 77 1010.7
20260506164909 20 32 16.1 29.0 0.00 0.00 0.00 77 1010.7
20260506164833 20 35 16.1 29.0 0.00 0.00 0.00 76 1010.7
20260506164735 20 27 14.5 29.0 0.00 0.00 0.00 77 1010.8
20260506164550 20 37 12.9 24.1 0.00 0.00 0.00 77 1010.8
20260506164453 20 53 11.3 27.4 0.00 0.00 0.00 78 1010.8
20260506164357 20 15 12.9 27.4 0.00 0.00 0.00 79 1010.8
20260506164303 20 55 16.1 27.4 0.00 0.00 0.00 79 1010.8
20260506164207 20 32 16.1 27.4 0.00 0.00 0.00 79 1010.8
20260506164112 20 37 16.1 27.4 0.00 0.00 0.00 79 1010.9
20260506163953 20 31 16.1 27.4 0.00 0.00 0.00 79 1010.9
20260506163917 20 33 12.9 27.4 0.00 0.00 0.00 80 1010.9
20260506163759 20 22 14.5 27.4 0.00 0.00 0.00 80 1010.9
20260506163724 19 19 12.9 27.4 0.00 0.00 0.00 80 1010.9
20260506163549 19 14 11.3 25.7 0.00 0.00 0.00 82 1011.1
20260506163453 19 18 14.5 25.7 0.00 0.00 0.00 82 1011.1
20260506163356 18 17 16.1 25.7 0.00 0.00 0.00 82 1011.0
20260506163259 18 355 17.7 33.8 0.00 0.00 0.00 82 1011.1
20260506163203 18 17 17.7 33.8 0.00 0.00 0.00 82 1010.9
20260506163106 18 25 14.5 33.8 0.00 0.00 0.00 82 1011.0
20260506163014 18 31 14.5 33.8 0.00 0.00 0.00 83 1011.1
20260506162850 18 15 14.5 33.8 0.00 0.00 0.00 83 1011.2
20260506162814 18 57 14.5 33.8 0.00 0.00 0.00 83 1011.2
20260506162650 18 17 14.5 33.8 0.00 0.00 0.00 82 1011.4
20260506162553 18 28 17.7 33.8 0.00 0.00 0.00 82 1011.4
20260506162456 18 14 19.3 33.8 0.00 0.00 0.00 82 1011.4
20260506162400 18 360 16.1 32.2 0.00 0.00 0.00 82 1011.6
20260506162308 18 19 14.5 32.2 0.00 0.00 0.00 83 1011.5
20260506162211 18 355 14.5 33.8 0.00 0.00 0.00 83 1011.6
20260506162135 18 38 14.5 33.8 0.00 0.00 0.00 83 1011.4
20260506161950 18 17 11.3 40.2 0.00 0.00 0.00 83 1011.4
20260506161913 18 9 16.1 40.2 0.00 0.00 0.00 82 1011.4
20260506161755 18 16 17.7 40.2 0.00 0.00 0.00 82 1011.5
20260506161659 18 35 16.1 40.2 0.00 0.00 0.00 82 1011.6
20260506161605 18 26 19.3 40.2 0.00 0.00 0.00 82 1011.6
20260506161450 18 38 22.5 40.2 0.00 0.00 0.00 82 1011.7
20260506161414 19 20 22.5 40.2 0.00 0.00 0.00 82 1011.7
20260506161249 19 5 20.9 40.2 0.00 0.00 0.00 82 1011.9
20260506161154 19 53 19.3 35.4 0.00 0.00 0.00 82 1011.9
20260506161058 19 32 16.1 35.4 0.00 0.00 0.00 81 1011.9
20260506161024 20 5 16.1 35.4 0.00 0.00 0.00 81 1012.0
20260506160908 20 48 17.7 35.4 0.00 0.00 0.00 81 1012.1
20260506160750 20 22 17.7 35.4 0.00 0.00 0.00 81 1012.1
20260506160655 20 338 17.7 29.0 0.00 0.00 0.00 81 1012.1
20260506160558 20 30 16.1 27.4 0.00 0.00 0.00 81 1012.0
20260506160521 20 360 14.5 27.4 0.00 0.00 0.00 81 1012.0
20260506160424 20 342 14.5 27.4 0.00 0.00 0.00 81 1012.0
20260506160251 20 338 14.5 27.4 0.00 0.00 0.00 81 1011.9
20260506160154 20 348 16.1 27.4 0.00 0.00 0.00 81 1011.8
20260506160058 21 360 16.1 27.4 0.00 0.00 0.00 81 1011.7
20260506160001 21 5 16.1 27.4 0.00 0.00 0.00 80 1011.5
20260506155904 21 20 16.1 25.7 0.00 0.00 0.00 81 1011.5
20260506155748 21 347 9.7 25.7 0.00 0.00 0.00 81 1011.3
20260506155656 21 346 9.7 25.7 0.00 0.00 0.00 81 1011.3
20260506155559 21 26 14.5 25.7 0.00 0.00 0.00 81 1011.3
20260506155523 21 12 14.5 25.7 0.00 0.00 0.00 80 1011.1
20260506155405 21 14 12.9 22.5 0.00 0.00 0.00 81 1011.1
20260506155307 21 34 9.7 27.4 0.00 0.00 0.00 81 1011.1
20260506155150 21 53 11.3 29.0 0.00 0.00 0.00 80 1011.1
20260506155114 21 355 14.5 29.0 0.00 0.00 0.00 79 1011.1
20260506155000 22 31 12.9 29.0 0.00 0.00 0.00 79 1011.1
20260506154903 22 15 9.7 29.0 0.00 0.00 0.00 79 1011.1
20260506154807 22 61 11.3 29.0 0.00 0.00 0.00 80 1011.2
20260506154710 23 18 14.5 29.0 0.00 0.00 0.00 80 1011.0
20260506154553 23 40 19.3 29.0 0.00 0.00 0.00 80 1011.0
20260506154456 23 40 16.1 29.0 0.00 0.00 0.00 82 1010.9
20260506154400 24 43 9.7 29.0 0.00 0.00 0.00 84 1010.8
20260506154307 24 74 6.4 11.3 0.00 0.00 0.00 84 1010.8
20260506154151 24 88 6.4 11.3 0.00 0.00 0.00 84 1010.7
20260506154055 23 90 8.0 11.3 0.00 0.00 0.00 84 1010.7
20260506153959 23 96 8.0 11.3 0.00 0.00 0.00 84 1010.6
20260506153902 24 87 8.0 11.3 0.00 0.00 0.00 83 1010.6
20260506153750 24 88 6.4 9.7 0.00 0.00 0.00 83 1010.5
20260506153715 24 88 6.4 9.7 0.00 0.00 0.00 84 1010.5
20260506153550 24 89 4.8 9.7 0.00 0.00 0.00 83 1010.6
20260506153513 24 87 4.8 9.7 0.00 0.00 0.00 83 1010.6
20260506153355 24 86 4.8 9.7 0.00 0.00 0.00 83 1010.6
20260506153259 24 87 4.8 9.7 0.00 0.00 0.00 83 1010.7
20260506153202 24 87 3.2 9.7 0.00 0.00 0.00 83 1010.7
20260506153050 24 98 1.6 6.4 0.00 0.00 0.00 83 1010.7
20260506152953 24 98 3.2 6.4 0.00 0.00 0.00 83 1010.7
20260506152857 24 78 1.6 6.4 0.00 0.00 0.00 83 1010.6
20260506152800 24 78 3.2 6.4 0.00 0.00 0.00 83 1010.6
20260506152724 24 80 3.2 6.4 0.00 0.00 0.00 83 1010.6
20260506152602 24 80 3.2 6.4 0.00 0.00 0.00 83 1010.6
20260506152506 24 80 3.2 4.8 0.00 0.00 0.00 83 1010.4
20260506152414 24 82 1.6 8.0 0.00 0.00 0.00 83 1010.4
20260506152256 24 82 1.6 8.0 0.00 0.00 0.00 83 1010.4
20260506152200 24 81 1.6 8.0 0.00 0.00 0.00 83 1010.2
20260506152104 24 59 0.0 8.0 0.00 0.00 0.00 83 1010.2
20260506152007 24 59 1.6 8.0 0.00 0.00 0.00 83 1010.2
20260506151851 24 58 1.6 8.0 0.00 0.00 0.00 83 1010.2
20260506151815 24 53 3.2 8.0 0.00 0.00 0.00 83 1010.2
20260506151701 24 49 3.2 8.0 0.00 0.00 0.00 83 1010.2
20260506151604 24 48 3.2 8.0 0.00 0.00 0.00 83 1010.2
20260506151507 24 119 3.2 4.8 0.00 0.00 0.00 83 1010.2
20260506151350 24 120 1.6 4.8 0.00 0.00 0.00 83 1010.2
20260506151255 24 123 0.0 4.8 0.00 0.00 0.00 83 1010.2
20260506151159 24 123 0.0 4.8 0.00 0.00 0.00 83 1010.2
20260506151106 23 123 1.6 4.8 0.00 0.00 0.00 83 1010.2
20260506150950 23 123 0.0 9.7 0.00 0.00 0.00 83 1010.1
20260506150853 23 124 0.0 9.7 0.00 0.00 0.00 83 1010.1
20260506150757 23 124 0.0 9.7 0.00 0.00 0.00 83 1010.1
20260506150722 23 124 0.0 9.7 0.00 0.00 0.00 83 1010.0
20260506150604 23 124 0.0 9.7 0.00 0.00 0.00 83 1010.0
20260506150527 23 124 1.6 9.7 0.00 0.00 0.00 83 1010.0
20260506150354 24 124 1.6 9.7 0.00 0.00 0.00 83 1010.0
20260506150317 24 124 3.2 9.7 0.00 0.00 0.00 83 1009.9
20260506150200 24 125 4.8 9.7 0.00 0.00 0.00 83 1009.9
20260506150104 24 107 3.2 9.7 0.00 0.00 0.00 83 1009.9
20260506150007 24 144 3.2 6.4 0.00 0.00 0.00 83 1010.0
20260506145851 24 146 1.6 6.4 0.00 0.00 0.00 83 1009.9
20260506145758 24 146 0.0 6.4 0.00 0.00 0.00 83 1009.9
20260506145702 24 146 1.6 6.4 0.00 0.00 0.00 83 1009.8
20260506145606 24 146 3.2 6.4 0.00 0.00 0.00 83 1009.8
20260506145448 24 146 3.2 9.7 0.00 0.00 0.00 83 1009.6
20260506145352 24 146 3.2 9.7 0.00 0.00 0.00 83 1009.6
20260506145256 24 146 3.2 9.7 0.00 0.00 0.00 83 1009.6
20260506145221 24 146 3.2 9.7 0.00 0.00 0.00 83 1009.5
20260506145108 24 150 3.2 9.7 0.00 0.00 0.00 83 1009.6
20260506144952 24 144 1.6 9.7 0.00 0.00 0.00 83 1009.6
20260506144854 24 154 3.2 9.7 0.00 0.00 0.00 83 1009.6
20260506144818 24 175 3.2 9.7 0.00 0.00 0.00 83 1009.5
20260506144700 24 194 3.2 11.3 0.00 0.00 0.00 83 1009.5
20260506144603 24 148 3.2 11.3 0.00 0.00 0.00 83 1009.5
20260506144526 24 148 3.2 11.3 0.00 0.00 0.00 83 1009.4
20260506144413 24 157 3.2 9.7 0.00 0.00 0.00 83 1009.5
20260506144257 24 157 1.6 9.7 0.00 0.00 0.00 83 1009.5
20260506144157 24 150 1.6 9.7 0.00 0.00 0.00 83 1009.6
20260506144101 24 150 1.6 9.7 0.00 0.00 0.00 83 1009.6
20260506144024 24 151 3.2 9.7 0.00 0.00 0.00 83 1009.6
20260506143906 24 155 4.8 9.7 0.00 0.00 0.00 83 1009.6
20260506143751 24 196 1.6 11.3 0.00 0.00 0.00 83 1009.5
20260506143720 24 155 0.0 11.3 0.00 0.00 0.00 83 1009.5
20260506143601 24 155 0.0 14.5 0.00 0.00 0.00 83 1009.6
20260506143505 24 155 0.0 14.5 0.00 0.00 0.00 83 1009.6
20260506143348 24 155 1.6 14.5 0.00 0.00 0.00 84 1009.5
20260506143252 24 155 1.6 14.5 0.00 0.00 0.00 83 1009.5
20260506143155 24 159 0.0 14.5 0.00 0.00 0.00 84 1009.5
20260506143119 24 187 1.6 14.5 0.00 0.00 0.00 84 1009.4
20260506143005 24 187 3.2 14.5 0.00 0.00 0.00 84 1009.4
20260506142848 24 200 6.4 14.5 0.00 0.00 0.00 83 1009.3
20260506142751 24 168 6.4 14.5 0.00 0.00 0.00 84 1009.3
20260506142655 24 172 6.4 12.9 0.00 0.00 0.00 83 1009.2
20260506142618 24 146 6.4 12.9 0.00 0.00 0.00 83 1009.1
20260506142521 24 165 4.8 11.3 0.00 0.00 0.00 83 1009.1
20260506142403 24 148 1.6 9.7 0.00 0.00 0.00 84 1009.0
20260506142250 24 182 3.2 9.7 0.00 0.00 0.00 85 1009.0
20260506142154 23 184 4.8 9.7 0.00 0.00 0.00 85 1009.0
20260506142117 23 192 4.8 11.3 0.00 0.00 0.00 85 1009.0
20260506142000 23 151 4.8 11.3 0.00 0.00 0.00 85 1009.0
20260506141904 23 151 4.8 11.3 0.00 0.00 0.00 85 1008.9
20260506141807 23 153 4.8 11.3 0.00 0.00 0.00 85 1009.0
20260506141710 23 129 4.8 11.3 0.00 0.00 0.00 85 1008.9
20260506141557 23 130 3.2 11.3 0.00 0.00 0.00 85 1008.9
20260506141459 23 155 3.2 11.3 0.00 0.00 0.00 85 1009.0
20260506141403 23 163 3.2 11.3 0.00 0.00 0.00 85 1009.0
20260506141307 23 163 3.2 11.3 0.00 0.00 0.00 85 1009.1
20260506141211 23 127 1.6 6.4 0.00 0.00 0.00 85 1009.2
20260506141054 23 126 1.6 6.4 0.00 0.00 0.00 85 1009.2
20260506141017 23 142 1.6 6.4 0.00 0.00 0.00 85 1009.4
20260506140904 23 142 1.6 6.4 0.00 0.00 0.00 85 1009.4
20260506140808 23 142 1.6 6.4 0.00 0.00 0.00 85 1009.4
20260506140712 23 143 1.6 6.4 0.00 0.00 0.00 85 1009.4
20260506140552 23 143 3.2 6.4 0.00 0.00 0.00 85 1009.4
20260506140456 23 143 1.6 6.4 0.00 0.00 0.00 86 1009.4
20260506140359 23 144 1.6 6.4 0.00 0.00 0.00 86 1009.5
20260506140303 23 147 0.0 6.4 0.00 0.00 0.00 86 1009.6
20260506140150 23 147 1.6 6.4 0.00 0.00 0.00 86 1009.6
20260506140054 23 146 3.2 6.4 0.00 0.00 0.00 86 1009.6
20260506140017 23 146 3.2 6.4 0.00 0.00 0.00 86 1009.6
20260506135920 23 139 3.2 6.4 0.00 0.00 0.00 86 1009.6
20260506135803 23 139 3.2 9.7 0.00 0.00 0.00 86 1009.5
20260506135706 23 148 3.2 12.9 0.00 0.00 0.00 86 1009.6
20260506135554 23 148 1.6 12.9 0.00 0.00 0.00 86 1009.5
20260506135458 23 148 1.6 12.9 0.00 0.00 0.00 86 1009.4
20260506135401 23 150 0.0 14.5 0.00 0.00 0.00 86 1009.4
20260506135306 23 150 1.6 14.5 0.00 0.00 0.00 86 1009.3
20260506135150 23 150 1.6 14.5 0.00 0.00 0.00 86 1009.1
20260506135114 23 153 3.2 14.5 0.00 0.00 0.00 86 1009.1
20260506135016 23 153 4.8 14.5 0.00 0.00 0.00 86 1009.0
20260506134903 23 153 6.4 14.5 0.00 0.00 0.00 86 1008.8
20260506134806 23 161 6.4 14.5 0.00 0.00 0.00 86 1008.8
20260506134650 23 161 6.4 16.1 0.00 0.00 0.00 87 1008.6
20260506134553 23 147 4.8 16.1 0.00 0.00 0.00 87 1008.6
20260506134456 23 150 6.4 16.1 0.00 0.00 0.00 87 1008.6
20260506134422 23 155 4.8 16.1 0.00 0.00 0.00 87 1008.5
20260506134324 23 157 4.8 16.1 0.00 0.00 0.00 87 1008.6
20260506134153 23 259 6.4 16.1 0.00 0.00 0.00 87 1008.6
20260506134057 23 151 8.0 16.1 0.00 0.00 0.00 87 1008.6
20260506134000 23 156 6.4 16.1 0.00 0.00 0.00 87 1008.7
20260506133904 23 165 3.2 16.1 0.00 0.00 0.00 87 1008.7
20260506133808 23 143 3.2 11.3 0.00 0.00 0.00 87 1008.7
20260506133651 23 155 3.2 11.3 0.00 0.00 0.00 87 1008.7
20260506133558 23 153 4.8 11.3 0.00 0.00 0.00 87 1008.7
20260506133501 23 154 6.4 11.3 0.00 0.00 0.00 87 1008.7
20260506133405 23 170 6.4 9.7 0.00 0.00 0.00 87 1008.7
20260506133329 23 166 8.0 11.3 0.00 0.00 0.00 87 1008.7
20260506133149 23 175 6.4 11.3 0.00 0.00 0.00 87 1008.7
20260506133114 23 153 8.0 11.3 0.00 0.00 0.00 87 1008.7
20260506132949 23 162 4.8 11.3 0.00 0.00 0.00 87 1008.7
20260506132857 23 177 3.2 11.3 0.00 0.00 0.00 87 1008.7
20260506132800 23 139 4.8 12.9 0.00 0.00 0.00 87 1008.6
20260506132704 23 151 4.8 12.9 0.00 0.00 0.00 87 1008.5
20260506132548 23 152 6.4 12.9 0.00 0.00 0.00 87 1008.5
20260506132512 23 169 6.4 12.9 0.00 0.00 0.00 87 1008.5
20260506132348 23 153 6.4 12.9 0.00 0.00 0.00 87 1008.5
20260506132256 23 144 6.4 12.9 0.00 0.00 0.00 87 1008.5
20260506132159 23 165 6.4 12.9 0.00 0.00 0.00 87 1008.5
20260506132059 23 126 6.4 14.5 0.00 0.00 0.00 87 1008.5
20260506132002 23 146 6.4 16.1 0.00 0.00 0.00 87 1008.6
20260506131906 23 152 6.4 16.1 0.00 0.00 0.00 87 1008.5
20260506131808 23 131 6.4 16.1 0.00 0.00 0.00 87 1008.5
20260506131652 23 145 4.8 16.1 0.00 0.00 0.00 87 1008.5
20260506131620 23 144 6.4 16.1 0.00 0.00 0.00 87 1008.5
20260506131503 23 157 6.4 16.1 0.00 0.00 0.00 87 1008.6
20260506131407 22 119 6.4 16.1 0.00 0.00 0.00 87 1008.5
20260506131310 23 166 8.0 16.1 0.00 0.00 0.00 88 1008.5
20260506131153 23 161 6.4 16.1 0.00 0.00 0.00 88 1008.5
20260506131057 23 30 4.8 12.9 0.00 0.00 0.00 88 1008.6
20260506131001 23 57 4.8 12.9 0.00 0.00 0.00 88 1008.6
20260506130849 23 146 3.2 12.9 0.00 0.00 0.00 88 1008.5
20260506130753 23 147 3.2 12.9 0.00 0.00 0.00 88 1008.5
20260506130657 23 124 3.2 12.9 0.00 0.00 0.00 88 1008.5
20260506130600 23 149 4.8 12.9 0.00 0.00 0.00 88 1008.4
20260506130503 23 138 4.8 12.9 0.00 0.00 0.00 88 1008.5
20260506130351 22 117 4.8 12.9 0.00 0.00 0.00 88 1008.4
20260506130254 22 108 6.4 12.9 0.00 0.00 0.00 88 1008.5
20260506130158 22 132 6.4 12.9 0.00 0.00 0.00 88 1008.4
20260506130101 22 97 4.8 12.9 0.00 0.00 0.00 88 1008.4
20260506130005 22 132 4.8 12.9 0.00 0.00 0.00 88 1008.4
20260506125848 23 133 4.8 12.9 0.00 0.00 0.00 88 1008.3
20260506125756 22 133 4.8 12.9 0.00 0.00 0.00 88 1008.3
20260506125700 22 145 6.4 12.9 0.00 0.00 0.00 88 1008.4
20260506125604 22 142 6.4 12.9 0.00 0.00 0.00 88 1008.4
20260506125507 22 156 4.8 12.9 0.00 0.00 0.00 88 1008.3
20260506125352 22 123 4.8 12.9 0.00 0.00 0.00 88 1008.2
20260506125255 22 105 4.8 12.9 0.00 0.00 0.00 88 1008.2
20260506125203 22 111 4.8 12.9 0.00 0.00 0.00 88 1008.2
20260506125107 22 146 4.8 12.9 0.00 0.00 0.00 88 1008.2
20260506124952 22 140 4.8 12.9 0.00 0.00 0.00 88 1008.2
20260506124854 22 135 4.8 12.9 0.00 0.00 0.00 88 1008.3
20260506124758 22 142 4.8 12.9 0.00 0.00 0.00 88 1008.2
20260506124702 22 134 4.8 12.9 0.00 0.00 0.00 88 1008.2
20260506124550 22 134 4.8 11.3 0.00 0.00 0.00 88 1008.2
20260506124453 22 136 4.8 11.3 0.00 0.00 0.00 88 1008.2
20260506124356 22 123 4.8 11.3 0.00 0.00 0.00 88 1008.1
20260506124300 22 132 4.8 11.3 0.00 0.00 0.00 88 1008.2
20260506124202 22 132 3.2 11.3 0.00 0.00 0.00 88 1008.2
20260506124106 22 133 3.2 11.3 0.00 0.00 0.00 88 1008.2
20260506123954 22 139 1.6 6.4 0.00 0.00 0.00 88 1008.2
20260506123857 22 140 1.6 6.4 0.00 0.00 0.00 88 1008.2
20260506123801 22 137 3.2 6.4 0.00 0.00 0.00 88 1008.2
20260506123706 22 138 3.2 6.4 0.00 0.00 0.00 88 1008.3
20260506123607 22 138 3.2 6.4 0.00 0.00 0.00 88 1008.2
20260506123511 22 138 1.6 6.4 0.00 0.00 0.00 88 1008.3
20260506123352 22 140 1.6 6.4 0.00 0.00 0.00 88 1008.3
20260506123252 22 141 1.6 8.0 0.00 0.00 0.00 88 1008.4
20260506123200 22 141 3.2 12.9 0.00 0.00 0.00 88 1008.4
20260506123123 22 141 4.8 12.9 0.00 0.00 0.00 88 1008.3
20260506123005 22 126 3.2 12.9 0.00 0.00 0.00 88 1008.4
20260506122850 22 126 1.6 12.9 0.00 0.00 0.00 88 1008.3
20260506122813 22 142 3.2 12.9 0.00 0.00 0.00 88 1008.3
20260506122655 22 142 4.8 12.9 0.00 0.00 0.00 88 1008.3
20260506122600 22 161 4.8 12.9 0.00 0.00 0.00 88 1008.3
20260506122508 22 140 4.8 12.9 0.00 0.00 0.00 88 1008.4
20260506122412 22 138 3.2 12.9 0.00 0.00 0.00 88 1008.4
20260506122253 22 123 1.6 6.4 0.00 0.00 0.00 88 1008.4
20260506122157 22 121 1.6 6.4 0.00 0.00 0.00 88 1008.5
20260506122101 22 121 1.6 6.4 0.00 0.00 0.00 88 1008.4
20260506122005 22 121 3.2 6.4 0.00 0.00 0.00 88 1008.3
20260506121852 22 121 1.6 6.4 0.00 0.00 0.00 88 1008.3
20260506121756 22 107 0.0 3.2 0.00 0.00 0.00 88 1008.4
20260506121659 22 106 0.0 4.8 0.00 0.00 0.00 88 1008.3
20260506121603 22 106 0.0 4.8 0.00 0.00 0.00 88 1008.4
20260506121506 22 144 0.0 4.8 0.00 0.00 0.00 88 1008.4
20260506121351 22 130 0.0 4.8 0.00 0.00 0.00 88 1008.3
20260506121258 22 132 0.0 4.8 0.00 0.00 0.00 88 1008.3
20260506121201 22 134 0.0 4.8 0.00 0.00 0.00 88 1008.4
20260506121105 22 134 0.0 4.8 0.00 0.00 0.00 88 1008.4
20260506120948 22 134 1.6 4.8 0.00 0.00 0.00 88 1008.4
20260506120852 22 134 1.6 4.8 0.00 0.00 0.00 88 1008.4
20260506120755 22 134 0.0 4.8 0.00 0.00 0.00 88 1008.4
20260506120705 22 134 0.0 4.8 0.00 0.00 0.00 88 1008.4
20260506120607 22 134 1.6 4.8 0.00 0.00 0.00 88 1008.4
20260506120451 22 134 1.6 4.8 0.00 0.00 0.00 88 1008.4
20260506120355 22 134 0.0 4.8 0.00 0.00 0.00 88 1008.3
20260506120258 22 134 0.0 4.8 0.00 0.00 0.00 88 1008.4
20260506120222 22 134 0.0 4.8 0.00 0.00 0.00 88 1008.4
20260506120049 22 134 0.0 4.8 0.00 0.00 0.00 88 1008.3
20260506115953 22 134 0.0 4.8 0.00 0.00 0.00 88 1008.3
20260506115856 22 134 0.0 4.8 0.00 0.00 0.00 88 1008.3
20260506115800 22 134 0.0 4.8 0.00 0.00 0.00 88 1008.3
20260506115703 22 134 0.0 4.8 0.00 0.00 0.00 88 1008.3
20260506115607 22 134 0.0 4.8 0.00 0.00 0.00 88 1008.3
20260506115514 22 134 1.6 4.8 0.00 0.00 0.00 88 1008.3
20260506115357 22 134 1.6 4.8 0.00 0.00 0.00 88 1008.2
20260506115300 22 134 0.0 11.3 0.00 0.00 0.00 88 1008.1
20260506115204 22 134 0.0 11.3 0.00 0.00 0.00 88 1008.2
20260506115107 22 134 1.6 11.3 0.00 0.00 0.00 88 1008.1
20260506115012 22 134 0.0 11.3 0.00 0.00 0.00 88 1008.3
20260506114853 22 134 0.0 11.3 0.00 0.00 0.00 87 1008.2
20260506114801 22 134 0.0 11.3 0.00 0.00 0.00 87 1008.1
20260506114703 22 134 0.0 11.3 0.00 0.00 0.00 87 1008.2
20260506114608 22 134 1.6 11.3 0.00 0.00 0.00 87 1008.2
20260506114508 22 134 3.2 11.3 0.00 0.00 0.00 87 1008.2
20260506114353 22 131 1.6 11.3 0.00 0.00 0.00 87 1008.3
20260506114257 23 128 0.0 1.6 0.00 0.00 0.00 87 1008.2
20260506114206 22 128 0.0 1.6 0.00 0.00 0.00 87 1008.2
20260506114049 23 128 0.0 1.6 0.00 0.00 0.00 87 1008.2
20260506114013 23 128 0.0 1.6 0.00 0.00 0.00 87 1008.2
20260506113849 23 128 0.0 3.2 0.00 0.00 0.00 87 1008.2
20260506113814 23 128 0.0 3.2 0.00 0.00 0.00 87 1008.2
20260506113649 23 128 0.0 3.2 0.00 0.00 0.00 87 1008.3
20260506113557 23 128 0.0 3.2 0.00 0.00 0.00 87 1008.3
20260506113500 23 128 0.0 3.2 0.00 0.00 0.00 87 1008.3
20260506113424 23 128 0.0 3.2 0.00 0.00 0.00 87 1008.2
20260506113306 23 128 0.0 3.2 0.00 0.00 0.00 87 1008.2
20260506113150 23 128 0.0 3.2 0.00 0.00 0.00 87 1008.3
20260506113054 23 128 0.0 3.2 0.00 0.00 0.00 87 1008.3
20260506112957 23 128 0.0 1.6 0.00 0.00 0.00 86 1008.2
20260506112905 23 128 0.0 4.8 0.00 0.00 0.00 86 1008.2
20260506112749 23 128 0.0 4.8 0.00 0.00 0.00 86 1008.3
20260506112652 23 128 0.0 4.8 0.00 0.00 0.00 86 1008.3
20260506112556 23 128 0.0 4.8 0.00 0.00 0.00 86 1008.3
20260506112459 23 128 0.0 4.8 0.00 0.00 0.00 86 1008.2
20260506112401 23 128 0.0 4.8 0.00 0.00 0.00 86 1008.3
20260506112248 23 128 0.0 4.8 0.00 0.00 0.00 86 1008.3
20260506112212 23 128 1.6 4.8 0.00 0.00 0.00 86 1008.3
20260506112115 23 128 1.6 4.8 0.00 0.00 0.00 86 1008.2
20260506111951 23 128 1.6 4.8 0.00 0.00 0.00 86 1008.2
20260506111915 23 128 1.6 4.8 0.00 0.00 0.00 86 1008.2
20260506111757 23 128 1.6 9.7 0.00 0.00 0.00 86 1008.2
20260506111700 23 128 1.6 9.7 0.00 0.00 0.00 86 1008.3
20260506111548 23 128 0.0 9.7 0.00 0.00 0.00 86 1008.3
20260506111512 23 128 0.0 9.7 0.00 0.00 0.00 86 1008.3
20260506111354 23 128 0.0 9.7 0.00 0.00 0.00 86 1008.2
20260506111317 23 128 0.0 9.7 0.00 0.00 0.00 86 1008.2
20260506111200 23 128 1.6 9.7 0.00 0.00 0.00 86 1008.2
20260506111103 23 128 3.2 9.7 0.00 0.00 0.00 86 1008.2
20260506111007 23 128 3.2 9.7 0.00 0.00 0.00 86 1008.1
20260506110914 23 123 1.6 6.4 0.00 0.00 0.00 86 1008.2
20260506110757 23 123 1.6 6.4 0.00 0.00 0.00 86 1008.1
20260506110702 23 195 0.0 1.6 0.00 0.00 0.00 86 1008.2
20260506110624 23 195 0.0 3.2 0.00 0.00 0.00 86 1008.1
20260506110507 23 195 0.0 3.2 0.00 0.00 0.00 86 1008.1
20260506110352 23 195 0.0 3.2 0.00 0.00 0.00 86 1008.1
20260506110254 23 195 0.0 3.2 0.00 0.00 0.00 86 1008.1
20260506110202 23 195 0.0 3.2 0.00 0.00 0.00 86 1008.2
20260506110105 23 195 0.0 4.8 0.00 0.00 0.00 86 1008.1
20260506105949 23 195 0.0 4.8 0.00 0.00 0.00 86 1008.1
20260506105852 23 195 0.0 4.8 0.00 0.00 0.00 86 1008.1
20260506105754 23 195 1.6 4.8 0.00 0.00 0.00 86 1008.1
20260506105659 23 195 1.6 4.8 0.00 0.00 0.00 86 1008.0
20260506105606 23 196 1.6 4.8 0.00 0.00 0.00 86 1008.0
20260506105510 23 198 0.0 8.0 0.00 0.00 0.00 86 1008.1
20260506105352 23 198 1.6 9.7 0.00 0.00 0.00 86 1008.1
20260506105256 23 198 1.6 9.7 0.00 0.00 0.00 86 1008.0
20260506105158 23 198 0.0 9.7 0.00 0.00 0.00 86 1008.0
20260506105102 23 198 1.6 9.7 0.00 0.00 0.00 86 1008.0
20260506105004 23 198 1.6 9.7 0.00 0.00 0.00 86 1008.0
20260506104853 23 198 1.6 9.7 0.00 0.00 0.00 86 1008.1
20260506104756 23 198 3.2 9.7 0.00 0.00 0.00 86 1008.0
20260506104659 23 199 4.8 9.7 0.00 0.00 0.00 86 1008.0
20260506104603 23 192 4.8 9.7 0.00 0.00 0.00 86 1007.9
20260506104506 23 204 1.6 9.7 0.00 0.00 0.00 87 1007.9
20260506104350 23 202 0.0 11.3 0.00 0.00 0.00 87 1007.9
20260506104257 23 202 1.6 11.3 0.00 0.00 0.00 87 1007.9
20260506104222 23 202 1.6 11.3 0.00 0.00 0.00 87 1008.0
20260506104104 23 202 1.6 11.3 0.00 0.00 0.00 87 1007.9
20260506104028 23 202 4.8 11.3 0.00 0.00 0.00 87 1007.9
20260506103852 23 205 4.8 11.3 0.00 0.00 0.00 87 1007.9
20260506103755 23 215 4.8 12.9 0.00 0.00 0.00 87 1007.9
20260506103720 23 218 6.4 12.9 0.00 0.00 0.00 87 1007.9
20260506103605 23 202 6.4 14.5 0.00 0.00 0.00 87 1007.8
20260506103449 23 201 6.4 14.5 0.00 0.00 0.00 87 1007.8
20260506103413 23 198 6.4 14.5 0.00 0.00 0.00 87 1007.8
20260506103249 23 198 6.4 14.5 0.00 0.00 0.00 87 1007.8
20260506103213 23 227 6.4 14.5 0.00 0.00 0.00 87 1007.8
20260506103049 23 211 8.0 14.5 0.00 0.00 0.00 87 1007.7
20260506102957 23 221 8.0 14.5 0.00 0.00 0.00 87 1007.7
20260506102900 23 217 8.0 14.5 0.00 0.00 0.00 87 1007.7
20260506102804 23 174 8.0 14.5 0.00 0.00 0.00 87 1007.7
20260506102729 23 213 8.0 14.5 0.00 0.00 0.00 87 1007.7
20260506102550 23 202 4.8 14.5 0.00 0.00 0.00 87 1007.6
20260506102515 23 201 4.8 12.9 0.00 0.00 0.00 87 1007.6
20260506102351 23 204 6.4 12.9 0.00 0.00 0.00 87 1007.6
20260506102258 23 200 6.4 12.9 0.00 0.00 0.00 87 1007.5
20260506102202 23 204 6.4 14.5 0.00 0.00 0.00 87 1007.5
20260506102105 23 225 4.8 14.5 0.00 0.00 0.00 87 1007.6
20260506101948 23 192 4.8 16.1 0.00 0.00 0.00 87 1007.5
20260506101852 23 189 6.4 16.1 0.00 0.00 0.00 86 1007.5
20260506101815 23 211 8.0 16.1 0.00 0.00 0.00 87 1007.5
20260506101701 23 225 8.0 16.1 0.00 0.00 0.00 86 1007.5
20260506101605 23 201 8.0 16.1 0.00 0.00 0.00 86 1007.5
20260506101448 23 206 6.4 19.3 0.00 0.00 0.00 86 1007.4
20260506101351 23 221 8.0 19.3 0.00 0.00 0.00 86 1007.4
20260506101255 23 210 9.7 19.3 0.00 0.00 0.00 86 1007.4
20260506101219 23 240 11.3 22.5 0.00 0.00 0.00 86 1007.4
20260506101100 23 185 9.7 22.5 0.00 0.00 0.00 86 1007.4
20260506101004 23 186 9.7 22.5 0.00 0.00 0.00 86 1007.4
20260506100852 23 217 9.7 22.5 0.00 0.00 0.00 86 1007.4
20260506100755 23 200 11.3 22.5 0.00 0.00 0.00 86 1007.4
20260506100720 23 207 12.9 22.5 0.00 0.00 0.00 86 1007.4
20260506100602 23 223 12.9 22.5 0.00 0.00 0.00 86 1007.4
20260506100506 23 221 12.9 22.5 0.00 0.00 0.00 86 1007.3
20260506100429 23 188 11.3 22.5 0.00 0.00 0.00 86 1007.5
20260506100256 23 198 11.3 22.5 0.00 0.00 0.00 86 1007.4
20260506100159 23 212 11.3 22.5 0.00 0.00 0.00 86 1007.5
20260506100005 23 193 11.3 22.5 0.00 0.00 0.00 86 1007.5
20260506095850 23 231 9.7 22.5 0.00 0.00 0.00 86 1007.4
20260506095753 23 212 9.7 17.7 0.00 0.00 0.00 86 1007.4
20260506095701 23 215 9.7 17.7 0.00 0.00 0.00 86 1007.4
20260506095605 23 229 9.7 20.9 0.00 0.00 0.00 86 1007.4
20260506095510 23 187 9.7 20.9 0.00 0.00 0.00 86 1007.3
20260506095352 23 206 9.7 20.9 0.00 0.00 0.00 86 1007.3
20260506095256 23 205 9.7 20.9 0.00 0.00 0.00 86 1007.3
20260506095218 23 201 8.0 20.9 0.00 0.00 0.00 86 1007.2
20260506095101 23 204 9.7 20.9 0.00 0.00 0.00 86 1007.3
20260506094949 23 192 11.3 20.9 0.00 0.00 0.00 86 1007.3
20260506094854 23 182 11.3 24.1 0.00 0.00 0.00 86 1007.3
20260506094758 23 215 12.9 24.1 0.00 0.00 0.00 86 1007.2
20260506094702 23 228 12.9 24.1 0.00 0.00 0.00 86 1007.3
20260506094606 23 180 11.3 24.1 0.00 0.00 0.00 86 1007.3
20260506094452 23 215 9.7 24.1 0.00 0.00 0.00 86 1007.3
20260506094355 23 186 11.3 24.1 0.00 0.00 0.00 86 1007.3
20260506094259 23 200 11.3 24.1 0.00 0.00 0.00 86 1007.2
20260506094203 23 188 11.3 24.1 0.00 0.00 0.00 86 1007.2
20260506094106 23 185 8.0 24.1 0.00 0.00 0.00 86 1007.3
20260506093951 23 205 8.0 16.1 0.00 0.00 0.00 86 1007.3
20260506093854 23 229 8.0 16.1 0.00 0.00 0.00 86 1007.2
20260506093801 23 214 8.0 17.7 0.00 0.00 0.00 86 1007.2
20260506093706 23 217 8.0 17.7 0.00 0.00 0.00 86 1007.1
20260506093629 23 193 9.7 17.7 0.00 0.00 0.00 86 1007.2
20260506093511 23 205 9.7 17.7 0.00 0.00 0.00 86 1007.1
20260506093353 23 195 8.0 17.7 0.00 0.00 0.00 86 1007.1
20260506093256 23 215 9.7 17.7 0.00 0.00 0.00 86 1007.2
20260506093200 23 184 9.7 17.7 0.00 0.00 0.00 86 1007.1
20260506093107 23 219 11.3 17.7 0.00 0.00 0.00 86 1007.0
20260506092950 23 198 9.7 17.7 0.00 0.00 0.00 86 1007.1
20260506092854 23 218 9.7 17.7 0.00 0.00 0.00 86 1007.1
20260506092817 23 209 9.7 17.7 0.00 0.00 0.00 86 1007.0
20260506092659 23 196 9.7 19.3 0.00 0.00 0.00 86 1007.0
20260506092603 23 238 9.7 19.3 0.00 0.00 0.00 86 1007.1
20260506092526 23 204 9.7 20.9 0.00 0.00 0.00 86 1007.0
20260506092413 23 209 9.7 22.5 0.00 0.00 0.00 86 1007.0
20260506092249 23 207 9.7 22.5 0.00 0.00 0.00 86 1007.0
20260506092213 23 215 9.7 22.5 0.00 0.00 0.00 86 1007.0
20260506092049 23 209 11.3 22.5 0.00 0.00 0.00 86 1007.0
20260506091953 23 211 11.3 22.5 0.00 0.00 0.00 86 1007.0
20260506091857 23 221 11.3 22.5 0.00 0.00 0.00 86 1007.0
20260506091804 23 174 11.3 22.5 0.00 0.00 0.00 86 1007.0
20260506091648 23 191 12.9 22.5 0.00 0.00 0.00 86 1007.0
20260506091612 23 204 12.9 22.5 0.00 0.00 0.00 86 1007.0
20260506091454 23 192 12.9 20.9 0.00 0.00 0.00 86 1007.0
20260506091358 23 228 9.7 20.9 0.00 0.00 0.00 86 1007.0
20260506091301 23 214 11.3 20.9 0.00 0.00 0.00 86 1007.0
20260506091149 23 171 11.3 20.9 0.00 0.00 0.00 86 1007.0
20260506091052 23 184 11.3 22.5 0.00 0.00 0.00 86 1007.0
20260506090956 23 192 9.7 20.9 0.00 0.00 0.00 86 1006.9
20260506090858 23 219 8.0 20.9 0.00 0.00 0.00 86 1006.8
20260506090801 23 207 8.0 20.9 0.00 0.00 0.00 86 1006.9
20260506090706 23 190 8.0 20.9 0.00 0.00 0.00 86 1006.9
20260506090628 23 173 9.7 20.9 0.00 0.00 0.00 86 1006.9
20260506090455 23 186 11.3 20.9 0.00 0.00 0.00 86 1006.8
20260506090359 23 223 11.3 20.9 0.00 0.00 0.00 86 1006.9
20260506090323 23 225 11.3 22.5 0.00 0.00 0.00 86 1006.9
20260506090205 23 220 11.3 22.5 0.00 0.00 0.00 86 1006.8
20260506090050 23 211 11.3 22.5 0.00 0.00 0.00 86 1006.9
20260506085953 23 175 11.3 22.5 0.00 0.00 0.00 86 1006.9
20260506085856 23 198 12.9 22.5 0.00 0.00 0.00 86 1006.8
20260506085824 23 196 11.3 22.5 0.00 0.00 0.00 86 1006.9
20260506085707 23 207 9.7 22.5 0.00 0.00 0.00 86 1006.9
20260506085550 23 178 11.3 22.5 0.00 0.00 0.00 86 1007.0
20260506085453 23 184 12.9 22.5 0.00 0.00 0.00 86 1006.9
20260506085356 23 205 12.9 22.5 0.00 0.00 0.00 86 1006.9
20260506085300 23 178 11.3 22.5 0.00 0.00 0.00 86 1006.9
20260506085203 23 198 9.7 22.5 0.00 0.00 0.00 86 1006.8
20260506085051 23 215 11.3 22.5 0.00 0.00 0.00 86 1006.8
20260506084955 23 217 11.3 20.9 0.00 0.00 0.00 86 1006.9
20260506084857 23 202 11.3 19.3 0.00 0.00 0.00 86 1006.9
20260506084801 23 221 9.7 17.7 0.00 0.00 0.00 86 1006.8
20260506084704 23 180 12.9 17.7 0.00 0.00 0.00 86 1006.8
20260506084548 23 231 12.9 19.3 0.00 0.00 0.00 86 1006.8
20260506084455 23 221 9.7 19.3 0.00 0.00 0.00 86 1006.8
20260506084359 23 184 8.0 17.7 0.00 0.00 0.00 86 1006.7
20260506084303 23 220 8.0 17.7 0.00 0.00 0.00 86 1006.8
20260506084206 23 201 8.0 17.7 0.00 0.00 0.00 86 1006.9
20260506084050 23 227 8.0 17.7 0.00 0.00 0.00 86 1006.9
20260506084013 23 168 8.0 17.7 0.00 0.00 0.00 86 1006.9
20260506083900 23 197 8.0 17.7 0.00 0.00 0.00 86 1007.0
20260506083805 23 200 9.7 17.7 0.00 0.00 0.00 86 1007.0
20260506083648 23 184 9.7 19.3 0.00 0.00 0.00 86 1007.0
20260506083552 23 199 8.0 19.3 0.00 0.00 0.00 86 1007.0
20260506083515 23 213 8.0 25.7 0.00 0.00 0.00 86 1006.9
20260506083357 23 205 8.0 25.7 0.00 0.00 0.00 86 1006.9
20260506083301 23 193 8.0 25.7 0.00 0.00 0.00 86 1006.9
20260506083228 23 193 9.7 25.7 0.00 0.00 0.00 86 1006.8
20260506083111 23 215 9.7 25.7 0.00 0.00 0.00 86 1007.0
20260506083013 23 188 9.7 25.7 0.00 0.00 0.00 86 1006.9
20260506082856 23 197 12.9 25.7 0.00 0.00 0.00 86 1006.8
20260506082759 23 222 14.5 25.7 0.00 0.00 0.00 86 1006.8
20260506082703 23 207 12.9 25.7 0.00 0.00 0.00 86 1006.7
20260506082606 23 226 11.3 25.7 0.00 0.00 0.00 86 1006.8
20260506082454 23 184 12.9 25.7 0.00 0.00 0.00 86 1006.9
20260506082417 23 193 12.9 25.7 0.00 0.00 0.00 86 1006.8
20260506082300 23 209 9.7 25.7 0.00 0.00 0.00 86 1006.9
20260506082203 23 218 11.3 25.7 0.00 0.00 0.00 86 1006.9
20260506082107 23 175 11.3 25.7 0.00 0.00 0.00 86 1006.9
20260506081952 23 172 11.3 25.7 0.00 0.00 0.00 86 1006.9
20260506081855 23 167 12.9 25.7 0.00 0.00 0.00 86 1006.9
20260506081823 23 207 11.3 22.5 0.00 0.00 0.00 86 1007.0
20260506081704 23 175 8.0 19.3 0.00 0.00 0.00 86 1006.9
20260506081549 23 194 8.0 29.0 0.00 0.00 0.00 86 1006.9
20260506081512 23 195 9.7 29.0 0.00 0.00 0.00 86 1006.9
20260506081435 23 196 8.0 29.0 0.00 0.00 0.00 86 1006.9
20260506081251 23 175 8.0 29.0 0.00 0.00 0.00 86 1007.0
20260506081155 23 180 8.0 29.0 0.00 0.00 0.00 86 1007.0
20260506081102 23 200 9.7 29.0 0.00 0.00 0.00 86 1007.0
20260506081006 23 180 9.7 29.0 0.00 0.00 0.00 86 1006.9
20260506080910 23 202 11.3 29.0 0.00 0.00 0.00 86 1007.0
20260506080753 23 186 11.3 27.4 0.00 0.00 0.00 86 1007.0
20260506080658 23 213 8.0 24.1 0.00 0.00 0.00 86 1007.0
20260506080600 23 194 9.7 24.1 0.00 0.00 0.00 86 1007.0
20260506080448 23 193 9.7 24.1 0.00 0.00 0.00 86 1006.9
20260506080352 23 202 8.0 25.7 0.00 0.00 0.00 86 1006.9
20260506080255 23 196 9.7 25.7 0.00 0.00 0.00 86 1007.0
20260506080217 23 204 8.0 25.7 0.00 0.00 0.00 86 1007.0
20260506073513 23 207 14.5 24.1 0.00 0.00 0.00 86 1007.2
20260506073349 23 200 12.9 24.1 0.00 0.00 0.00 86 1007.3
20260506073253 23 212 11.3 25.7 0.00 0.00 0.00 86 1007.3
20260506073156 23 217 11.3 24.1 0.00 0.00 0.00 86 1007.3
20260506073100 23 182 12.9 24.1 0.00 0.00 0.00 86 1007.3
20260506073003 23 184 11.3 24.1 0.00 0.00 0.00 86 1007.4
20260506072852 23 210 9.7 24.1 0.00 0.00 0.00 86 1007.4
20260506072755 23 200 11.3 24.1 0.00 0.00 0.00 86 1007.4
20260506072718 23 240 12.9 24.1 0.00 0.00 0.00 86 1007.5
20260506072620 23 208 12.9 32.2 0.00 0.00 0.00 86 1007.4
20260506072502 23 208 11.3 32.2 0.00 0.00 0.00 86 1007.4
20260506072406 23 208 11.3 32.2 0.00 0.00 0.00 86 1007.4
20260506072254 23 194 11.3 32.2 0.00 0.00 0.00 86 1007.5
20260506072158 23 190 9.7 32.2 0.00 0.00 0.00 86 1007.4
20260506072122 23 182 8.0 32.2 0.00 0.00 0.00 86 1007.5
20260506072004 23 198 11.3 32.2 0.00 0.00 0.00 86 1007.4
20260506071908 23 213 14.5 32.2 0.00 0.00 0.00 86 1007.4
20260506071811 23 213 14.5 32.2 0.00 0.00 0.00 85 1007.4
20260506071653 23 233 12.9 29.0 0.00 0.00 0.00 85 1007.4
20260506071601 23 175 14.5 29.0 0.00 0.00 0.00 85 1007.5
20260506071505 23 223 14.5 29.0 0.00 0.00 0.00 85 1007.5
20260506071349 23 208 12.9 29.0 0.00 0.00 0.00 85 1007.5
20260506071251 23 205 12.9 29.0 0.00 0.00 0.00 85 1007.5
20260506071215 23 197 11.3 29.0 0.00 0.00 0.00 85 1007.5
20260506071057 23 196 11.3 29.0 0.00 0.00 0.00 85 1007.5
20260506071001 23 200 11.3 27.4 0.00 0.00 0.00 85 1007.5
20260506070909 23 193 9.7 27.4 0.00 0.00 0.00 85 1007.5
20260506070811 23 195 9.7 27.4 0.00 0.00 0.00 85 1007.5
20260506070654 23 182 14.5 27.4 0.00 0.00 0.00 85 1007.5
20260506070556 23 209 14.5 27.4 0.00 0.00 0.00 85 1007.5
20260506070459 23 194 11.3 25.7 0.00 0.00 0.00 85 1007.5
20260506070403 23 221 9.7 27.4 0.00 0.00 0.00 85 1007.6
20260506070250 23 200 9.7 27.4 0.00 0.00 0.00 85 1007.6
20260506070214 23 176 11.3 32.2 0.00 0.00 0.00 85 1007.6
20260506062348 23 193 16.1 38.6 0.00 0.00 0.00 85 1007.5
20260506062311 23 205 14.5 33.8 0.00 0.00 0.00 85 1007.5
20260506062153 23 192 12.9 33.8 0.00 0.00 0.00 85 1007.4
20260506062102 23 204 12.9 33.8 0.00 0.00 0.00 85 1007.5
20260506062005 23 189 11.3 33.8 0.00 0.00 0.00 85 1007.4
20260506061849 23 171 12.9 33.8 0.00 0.00 0.00 85 1007.5
20260506061813 23 171 12.9 33.8 0.00 0.00 0.00 85 1007.5
20260506061649 23 163 11.3 24.1 0.00 0.00 0.00 85 1007.6
20260506061612 23 225 9.7 24.1 0.00 0.00 0.00 85 1007.6
20260506061455 23 219 8.0 37.0 0.00 0.00 0.00 85 1007.5
20260506061403 23 153 8.0 37.0 0.00 0.00 0.00 85 1007.5
20260506061249 23 182 8.0 37.0 0.00 0.00 0.00 85 1007.5
20260506061151 23 198 9.7 37.0 0.00 0.00 0.00 85 1007.5
20260506061055 23 210 12.9 37.0 0.00 0.00 0.00 85 1007.5
20260506060958 23 192 12.9 37.0 0.00 0.00 0.00 85 1007.4
20260506060902 23 205 11.3 37.0 0.00 0.00 0.00 85 1007.4
20260506060750 23 221 16.1 37.0 0.00 0.00 0.00 85 1007.4
20260506060714 23 190 17.7 37.0 0.00 0.00 0.00 85 1007.4
20260506060555 23 223 16.1 35.4 0.00 0.00 0.00 85 1007.4
20260506060457 23 189 14.5 25.7 0.00 0.00 0.00 85 1007.4
20260506060421 23 219 11.3 25.7 0.00 0.00 0.00 85 1007.4
20260506060323 23 211 9.7 22.5 0.00 0.00 0.00 85 1007.4
20260506060206 23 182 9.7 27.4 0.00 0.00 0.00 85 1007.3
20260506051410 23 187 8.0 24.1 0.00 0.00 0.00 84 1007.6
20260506051312 23 190 8.0 24.1 0.00 0.00 0.00 84 1007.6
20260506051155 23 155 11.3 24.1 0.00 0.00 0.00 84 1007.6
20260506051059 23 206 11.3 24.1 0.00 0.00 0.00 84 1007.6
20260506051002 23 194 11.3 24.1 0.00 0.00 0.00 84 1007.6
20260506050906 23 203 9.7 24.1 0.00 0.00 0.00 84 1007.6
20260506050753 23 215 9.7 24.1 0.00 0.00 0.00 84 1007.6
20260506050657 23 171 12.9 24.1 0.00 0.00 0.00 84 1007.6
20260506050559 23 167 12.9 35.4 0.00 0.00 0.00 84 1007.6
20260506050504 23 186 11.3 35.4 0.00 0.00 0.00 83 1007.5
20260506050409 23 163 12.9 35.4 0.00 0.00 0.00 83 1007.6
20260506050252 23 188 12.9 35.4 0.00 0.00 0.00 83 1007.6
20260506050157 23 189 11.3 35.4 0.00 0.00 0.00 83 1007.6
20260506045128 23 189 14.5 35.4 0.00 0.00 0.00 83 1007.6
20260506044950 23 189 11.3 35.4 0.00 0.00 0.00 83 1007.5
20260506044855 23 217 12.9 35.4 0.00 0.00 0.00 83 1007.5
20260506044818 23 180 12.9 35.4 0.00 0.00 0.00 83 1007.5
20260506044704 23 207 12.9 35.4 0.00 0.00 0.00 83 1007.5
20260506044548 23 182 11.3 35.4 0.00 0.00 0.00 83 1007.5
20260506044451 23 200 16.1 35.4 0.00 0.00 0.00 83 1007.5
20260506044355 23 180 17.7 35.4 0.00 0.00 0.00 83 1007.5
20260506044258 23 236 17.7 35.4 0.00 0.00 0.00 83 1007.5
20260506044202 23 180 19.3 35.4 0.00 0.00 0.00 83 1007.5
20260506044109 23 224 16.1 37.0 0.00 0.00 0.00 83 1007.5
20260506043952 23 172 16.1 30.6 0.00 0.00 0.00 83 1007.5
20260506043915 23 196 14.5 29.0 0.00 0.00 0.00 83 1007.5
20260506043758 23 183 14.5 29.0 0.00 0.00 0.00 83 1007.6
20260506043723 23 209 12.9 29.0 0.00 0.00 0.00 84 1007.6
20260506043625 23 215 16.1 29.0 0.00 0.00 0.00 83 1007.5
20260506043527 24 190 16.1 29.0 0.00 0.00 0.00 84 1007.6
20260506043350 23 164 9.7 25.7 0.00 0.00 0.00 84 1007.6
20260506043317 24 161 8.0 22.5 0.00 0.00 0.00 84 1007.6
20260506043200 24 203 11.3 22.5 0.00 0.00 0.00 84 1007.7
20260506043104 24 174 9.7 22.5 0.00 0.00 0.00 84 1007.7
20260506043007 24 163 9.7 22.5 0.00 0.00 0.00 84 1007.7
20260506042851 24 189 9.7 22.5 0.00 0.00 0.00 84 1007.7
20260506042754 24 159 9.7 22.5 0.00 0.00 0.00 84 1007.7
20260506042703 24 175 9.7 22.5 0.00 0.00 0.00 84 1007.7
20260506042606 24 160 11.3 22.5 0.00 0.00 0.00 84 1007.6
20260506042450 24 178 11.3 27.4 0.00 0.00 0.00 84 1007.6
20260506042413 24 184 11.3 27.4 0.00 0.00 0.00 84 1007.6
20260506042249 24 155 8.0 27.4 0.00 0.00 0.00 84 1007.6
20260506042153 24 195 9.7 27.4 0.00 0.00 0.00 84 1007.6
20260506042116 24 180 9.7 27.4 0.00 0.00 0.00 84 1007.5
20260506042003 24 181 11.3 27.4 0.00 0.00 0.00 84 1007.6
20260506041907 24 159 12.9 27.4 0.00 0.00 0.00 84 1007.6
20260506041751 24 192 12.9 27.4 0.00 0.00 0.00 84 1007.5
20260506041655 24 166 12.9 27.4 0.00 0.00 0.00 84 1007.5
20260506041556 24 173 12.9 30.6 0.00 0.00 0.00 84 1007.5
20260506041500 24 192 12.9 30.6 0.00 0.00 0.00 84 1007.5
20260506041407 24 185 12.9 30.6 0.00 0.00 0.00 84 1007.5
20260506041251 24 153 12.9 27.4 0.00 0.00 0.00 84 1007.5
20260506041154 24 162 11.3 22.5 0.00 0.00 0.00 84 1007.5
20260506041058 24 188 9.7 22.5 0.00 0.00 0.00 84 1007.5
20260506041000 24 169 9.7 25.7 0.00 0.00 0.00 84 1007.5
20260506040904 24 174 8.0 25.7 0.00 0.00 0.00 84 1007.5
20260506040827 24 167 6.4 25.7 0.00 0.00 0.00 84 1007.5
20260506040656 24 196 9.7 25.7 0.00 0.00 0.00 84 1007.5
20260506040618 24 201 9.7 25.7 0.00 0.00 0.00 84 1007.5
20260506040501 24 182 9.7 25.7 0.00 0.00 0.00 84 1007.5
20260506040405 24 149 8.0 25.7 0.00 0.00 0.00 84 1007.5
20260506040249 24 183 9.7 25.7 0.00 0.00 0.00 84 1007.5
20260506040152 24 192 11.3 25.7 0.00 0.00 0.00 84 1007.5
20260506040055 24 150 11.3 24.1 0.00 0.00 0.00 84 1007.5
20260506040024 24 158 9.7 24.1 0.00 0.00 0.00 83 1007.5
20260506035905 24 188 11.3 24.1 0.00 0.00 0.00 83 1007.4
20260506035749 24 155 14.5 24.1 0.00 0.00 0.00 83 1007.4
20260506035651 24 165 12.9 24.1 0.00 0.00 0.00 83 1007.4
20260506035555 24 151 9.7 22.5 0.00 0.00 0.00 83 1007.4
20260506035458 24 146 8.0 19.3 0.00 0.00 0.00 83 1007.3
20260506035403 24 165 9.7 19.3 0.00 0.00 0.00 83 1007.4
20260506035250 24 166 9.7 19.3 0.00 0.00 0.00 83 1007.3
20260506035213 24 175 9.7 19.3 0.00 0.00 0.00 83 1007.3
20260506035049 24 160 9.7 22.5 0.00 0.00 0.00 83 1007.3
20260506035013 24 151 8.0 22.5 0.00 0.00 0.00 83 1007.3
20260506034916 24 165 8.0 22.5 0.00 0.00 0.00 83 1007.3
20260506034758 24 156 8.0 22.5 0.00 0.00 0.00 83 1007.3
20260506034702 24 152 8.0 22.5 0.00 0.00 0.00 83 1007.1
20260506034550 24 142 11.3 22.5 0.00 0.00 0.00 83 1007.2
20260506034513 24 130 11.3 20.9 0.00 0.00 0.00 83 1007.2
20260506034416 24 148 12.9 20.9 0.00 0.00 0.00 83 1007.2
20260506034259 24 171 11.3 20.9 0.00 0.00 0.00 83 1007.3
20260506034203 24 142 9.7 20.9 0.00 0.00 0.00 83 1007.2
20260506034126 24 157 9.7 20.9 0.00 0.00 0.00 83 1007.1
20260506033949 24 178 9.7 20.9 0.00 0.00 0.00 83 1007.1
20260506033857 24 154 11.3 20.9 0.00 0.00 0.00 83 1007.1
20260506033820 24 186 11.3 20.9 0.00 0.00 0.00 83 1007.1
20260506033705 24 173 11.3 20.9 0.00 0.00 0.00 83 1007.0
20260506033607 24 151 8.0 19.3 0.00 0.00 0.00 83 1007.1
20260506033451 24 151 8.0 19.3 0.00 0.00 0.00 83 1007.0
20260506033355 24 165 9.7 19.3 0.00 0.00 0.00 83 1007.0
20260506033303 24 150 9.7 20.9 0.00 0.00 0.00 83 1007.1
20260506033206 24 163 9.7 20.9 0.00 0.00 0.00 83 1007.0
20260506033110 24 148 9.7 20.9 0.00 0.00 0.00 83 1007.0
20260506032953 24 162 8.0 20.9 0.00 0.00 0.00 83 1007.0
20260506032856 24 135 6.4 20.9 0.00 0.00 0.00 83 1007.0
20260506032800 24 171 11.3 20.9 0.00 0.00 0.00 83 1006.9
20260506032703 24 146 11.3 20.9 0.00 0.00 0.00 83 1006.9
20260506032630 24 158 11.3 20.9 0.00 0.00 0.00 83 1006.9
20260506032534 24 175 9.7 20.9 0.00 0.00 0.00 83 1006.8
20260506032349 24 189 8.0 22.5 0.00 0.00 0.00 83 1006.9
20260506032312 24 150 8.0 22.5 0.00 0.00 0.00 83 1006.9
20260506032236 24 184 8.0 22.5 0.00 0.00 0.00 83 1006.9
20260506032051 24 162 8.0 22.5 0.00 0.00 0.00 83 1006.9
20260506031954 24 167 8.0 22.5 0.00 0.00 0.00 83 1006.9
20260506031903 24 166 9.7 17.7 0.00 0.00 0.00 83 1006.8
20260506031805 24 138 9.7 17.7 0.00 0.00 0.00 82 1006.8
20260506031650 24 144 11.3 17.7 0.00 0.00 0.00 82 1006.7
20260506031554 24 159 9.7 17.7 0.00 0.00 0.00 82 1006.7
20260506031457 24 153 8.0 17.7 0.00 0.00 0.00 82 1006.8
20260506031421 24 168 8.0 17.7 0.00 0.00 0.00 82 1006.8
20260506031303 24 149 8.0 17.7 0.00 0.00 0.00 82 1006.7
20260506031151 24 178 8.0 17.7 0.00 0.00 0.00 82 1006.7
20260506031054 24 175 6.4 17.7 0.00 0.00 0.00 82 1006.7
20260506030958 24 162 8.0 17.7 0.00 0.00 0.00 82 1006.7
20260506030922 24 141 6.4 17.7 0.00 0.00 0.00 82 1006.8
20260506030805 24 155 9.7 17.7 0.00 0.00 0.00 82 1006.7
20260506030649 24 141 11.3 17.7 0.00 0.00 0.00 82 1006.6
20260506030555 24 182 9.7 17.7 0.00 0.00 0.00 82 1006.6
20260506030459 24 161 8.0 19.3 0.00 0.00 0.00 82 1006.6
20260506030401 24 146 8.0 17.7 0.00 0.00 0.00 82 1006.5
20260506030305 24 166 8.0 17.7 0.00 0.00 0.00 82 1006.5
20260506030228 24 152 8.0 17.7 0.00 0.00 0.00 82 1006.5
20260506030110 24 147 8.0 17.7 0.00 0.00 0.00 82 1006.5
20260506030034 24 167 8.0 17.7 0.00 0.00 0.00 82 1006.5
20260506025849 24 152 6.4 17.7 0.00 0.00 0.00 81 1006.6
20260506025757 24 162 6.4 17.7 0.00 0.00 0.00 81 1006.6
20260506025701 24 157 8.0 17.7 0.00 0.00 0.00 81 1006.6
20260506025604 24 157 6.4 17.7 0.00 0.00 0.00 81 1006.5
20260506025507 24 143 4.8 14.5 0.00 0.00 0.00 81 1006.6
20260506025350 24 165 6.4 14.5 0.00 0.00 0.00 81 1006.6
20260506025313 24 156 8.0 16.1 0.00 0.00 0.00 81 1006.6
20260506025155 24 157 6.4 14.5 0.00 0.00 0.00 81 1006.5
20260506025122 25 144 6.4 14.5 0.00 0.00 0.00 81 1006.7
20260506025004 25 146 8.0 14.5 0.00 0.00 0.00 81 1006.5
20260506024848 25 175 6.4 17.7 0.00 0.00 0.00 81 1006.4
20260506024752 25 150 6.4 17.7 0.00 0.00 0.00 80 1006.4
20260506024656 25 168 6.4 17.7 0.00 0.00 0.00 80 1006.4
20260506024559 25 144 6.4 17.7 0.00 0.00 0.00 80 1006.4
20260506024504 25 150 8.0 17.7 0.00 0.00 0.00 80 1006.4
20260506024351 25 180 6.4 17.7 0.00 0.00 0.00 80 1006.3
20260506024254 25 153 8.0 17.7 0.00 0.00 0.00 80 1006.3
20260506024157 25 172 8.0 17.7 0.00 0.00 0.00 80 1006.4
20260506024101 25 168 8.0 17.7 0.00 0.00 0.00 80 1006.4
20260506024004 25 168 8.0 19.3 0.00 0.00 0.00 80 1006.3
20260506023853 25 141 8.0 17.7 0.00 0.00 0.00 79 1006.2
20260506023756 25 157 8.0 17.7 0.00 0.00 0.00 79 1006.2
20260506023701 25 173 8.0 17.7 0.00 0.00 0.00 79 1006.3
20260506023603 25 172 6.4 17.7 0.00 0.00 0.00 79 1006.2
20260506023506 25 176 8.0 17.7 0.00 0.00 0.00 79 1006.2
20260506023350 25 150 8.0 19.3 0.00 0.00 0.00 79 1006.2
20260506023314 25 160 8.0 19.3 0.00 0.00 0.00 79 1006.2
20260506023220 25 163 8.0 19.3 0.00 0.00 0.00 79 1006.2
20260506023123 25 172 8.0 19.3 0.00 0.00 0.00 79 1006.2
20260506023005 25 158 6.4 19.3 0.00 0.00 0.00 79 1006.2
20260506022848 25 185 8.0 19.3 0.00 0.00 0.00 79 1006.1
20260506022751 25 149 8.0 19.3 0.00 0.00 0.00 79 1006.0
20260506022655 25 171 6.4 19.3 0.00 0.00 0.00 78 1006.0
20260506022620 25 158 8.0 19.3 0.00 0.00 0.00 78 1006.1
20260506022522 25 158 9.7 19.3 0.00 0.00 0.00 78 1006.1
20260506022349 25 182 6.4 20.9 0.00 0.00 0.00 78 1006.0
20260506022251 25 156 6.4 17.7 0.00 0.00 0.00 78 1006.0
20260506022155 25 148 8.0 17.7 0.00 0.00 0.00 78 1006.0
20260506022058 25 153 8.0 17.7 0.00 0.00 0.00 78 1006.0
20260506022022 25 152 8.0 17.7 0.00 0.00 0.00 78 1006.0
20260506021904 25 197 8.0 20.9 0.00 0.00 0.00 78 1005.9
20260506021752 25 165 8.0 17.7 0.00 0.00 0.00 78 1005.9
20260506021655 25 167 8.0 17.7 0.00 0.00 0.00 78 1005.9
20260506021559 25 190 6.4 17.7 0.00 0.00 0.00 78 1005.9
20260506021503 25 146 6.4 17.7 0.00 0.00 0.00 78 1005.8
20260506021406 25 190 8.0 17.7 0.00 0.00 0.00 78 1005.8
20260506021310 25 153 8.0 17.7 0.00 0.00 0.00 78 1005.7
20260506021212 25 157 8.0 17.7 0.00 0.00 0.00 78 1005.7
20260506021100 25 155 8.0 17.7 0.00 0.00 0.00 78 1005.7